Wetterdaten: Dienstag, 26.02.2019
Datum Zeit Temp. Aussen Temp. o. S. +5cm Feuchte Auss Luftdruck Regen Sonnenschein Regendauer Solar Windben Empfang
26.02.2019 00:00 4,9 C 3,9 C 2,2 C 79 % 1033,6 hPa 0,0 l/m 0 min 0 min 0 W/m 0,0 km/h (0 Bft) 97,87 %
26.02.2019 00:02 4,9 C 3,9 C 2,2 C 79 % 1033,6 hPa 0,0 l/m 0 min 0 min 0 W/m 0,0 km/h (0 Bft) 100,00 %
26.02.2019 00:04 4,9 C 3,9 C 2,2 C 79 % 1033,6 hPa 0,0 l/m 0 min 0 min 0 W/m 0,0 km/h (0 Bft) 95,65 %
26.02.2019 00:08 4,8 C 3,3 C 2,2 C 80 % 1033,6 hPa 0,0 l/m 0 min 0 min 0 W/m 0,0 km/h (0 Bft) 94,68 %
26.02.2019 00:10 4,8 C 3,3 C 2,2 C 80 % 1033,6 hPa 0,0 l/m 0 min 0 min 0 W/m 0,0 km/h (0 Bft) 95,74 %
26.02.2019 00:12 4,8 C 3,3 C 2,2 C 80 % 1033,7 hPa 0,0 l/m 0 min 0 min 0 W/m 0,0 km/h (0 Bft) 93,62 %
26.02.2019 00:14 4,8 C 3,3 C 1,7 C 80 % 1033,7 hPa 0,0 l/m 0 min 0 min 0 W/m 0,0 km/h (0 Bft) 95,65 %
26.02.2019 00:16 4,8 C 3,3 C 1,7 C 80 % 1033,7 hPa 0,0 l/m 0 min 0 min 0 W/m 0,0 km/h (0 Bft) 95,74 %
26.02.2019 00:18 4,7 C 3,3 C 1,7 C 80 % 1033,6 hPa 0,0 l/m 0 min 0 min 0 W/m 0,0 km/h (0 Bft) 95,74 %
26.02.2019 00:20 4,7 C 3,3 C 1,7 C 80 % 1033,7 hPa 0,0 l/m 0 min 0 min 0 W/m 0,0 km/h (0 Bft) 93,62 %
26.02.2019 00:22 4,7 C 3,3 C 1,7 C 80 % 1033,7 hPa 0,0 l/m 0 min 0 min 0 W/m 0,0 km/h (0 Bft) 95,74 %
26.02.2019 00:24 4,7 C 3,3 C 1,7 C 80 % 1033,6 hPa 0,0 l/m 0 min 0 min 0 W/m 0,0 km/h (0 Bft) 95,74 %
26.02.2019 00:26 4,7 C 3,3 C 1,7 C 80 % 1033,5 hPa 0,0 l/m 0 min 0 min 0 W/m 0,0 km/h (0 Bft) 95,65 %
26.02.2019 00:28 4,6 C 2,8 C 1,7 C 80 % 1033,5 hPa 0,0 l/m 0 min 0 min 0 W/m 0,0 km/h (0 Bft) 95,74 %
26.02.2019 00:30 4,6 C 2,8 C 1,7 C 80 % 1033,5 hPa 0,0 l/m 0 min 0 min 0 W/m 0,0 km/h (0 Bft) 97,87 %
26.02.2019 00:32 4,6 C 2,8 C 1,7 C 80 % 1033,7 hPa 0,0 l/m 0 min 0 min 0 W/m 0,0 km/h (0 Bft) 97,87 %
26.02.2019 00:34 4,6 C 2,8 C 1,7 C 80 % 1033,6 hPa 0,0 l/m 0 min 0 min 0 W/m 0,0 km/h (0 Bft) 93,62 %
26.02.2019 00:36 4,6 C 2,8 C 1,7 C 80 % 1033,6 hPa 0,0 l/m 0 min 0 min 0 W/m 0,0 km/h (0 Bft) 94,83 %
26.02.2019 00:38 4,5 C 2,8 C 1,7 C 80 % 1033,6 hPa 0,0 l/m 0 min 0 min 0 W/m 0,0 km/h (0 Bft) 97,14 %
26.02.2019 00:40 4,4 C 2,8 C 1,7 C 80 % 1033,6 hPa 0,0 l/m 0 min 0 min 0 W/m 0,0 km/h (0 Bft) 95,74 %
26.02.2019 00:42 4,4 C 2,8 C 1,7 C 80 % 1033,4 hPa 0,0 l/m 0 min 0 min 0 W/m 0,0 km/h (0 Bft) 93,62 %
26.02.2019 00:44 4,4 C 2,8 C 1,7 C 80 % 1033,4 hPa 0,0 l/m 0 min 0 min 0 W/m 0,0 km/h (0 Bft) 93,62 %
26.02.2019 00:46 4,4 C 2,8 C 1,7 C 80 % 1033,4 hPa 0,0 l/m 0 min 0 min 0 W/m 0,0 km/h (0 Bft) 95,74 %
26.02.2019 00:48 4,3 C 2,8 C 1,7 C 80 % 1033,4 hPa 0,0 l/m 0 min 0 min 0 W/m 0,0 km/h (0 Bft) 95,74 %
26.02.2019 00:50 4,3 C 2,8 C 1,7 C 80 % 1033,4 hPa 0,0 l/m 0 min 0 min 0 W/m 0,0 km/h (0 Bft) 97,83 %
26.02.2019 00:52 4,3 C 2,8 C 1,7 C 80 % 1033,3 hPa 0,0 l/m 0 min 0 min 0 W/m 0,0 km/h (0 Bft) 95,74 %
26.02.2019 00:54 4,2 C 2,8 C 1,1 C 80 % 1033,4 hPa 0,0 l/m 0 min 0 min 0 W/m 0,0 km/h (0 Bft) 95,74 %
26.02.2019 00:56 4,2 C 2,8 C 1,1 C 80 % 1033,3 hPa 0,0 l/m 0 min 0 min 0 W/m 0,0 km/h (0 Bft) 95,74 %
26.02.2019 00:58 4,2 C 2,2 C 1,1 C 80 % 1033,4 hPa 0,0 l/m 0 min 0 min 0 W/m 0,0 km/h (0 Bft) 95,74 %
26.02.2019 01:00 4,2 C 2,8 C 1,1 C 80 % 1033,3 hPa 0,0 l/m 0 min 0 min 0 W/m 0,0 km/h (0 Bft) 97,87 %
26.02.2019 01:02 4,2 C 2,8 C 1,1 C 80 % 1033,3 hPa 0,0 l/m 0 min 0 min 0 W/m 0,0 km/h (0 Bft) 97,83 %
26.02.2019 01:04 4,1 C 2,8 C 1,1 C 80 % 1033,4 hPa 0,0 l/m 0 min 0 min 0 W/m 0,0 km/h (0 Bft) 97,87 %
26.02.2019 01:06 4,1 C 3,3 C 1,1 C 80 % 1033,2 hPa 0,0 l/m 0 min 0 min 0 W/m 0,0 km/h (0 Bft) 93,22 %
26.02.2019 01:08 4,1 C 3,9 C 1,1 C 81 % 1033,2 hPa 0,0 l/m 0 min 0 min 0 W/m 3,2 km/h (1 Bft) 97,14 %
26.02.2019 01:10 4,1 C 5,0 C 1,7 C 81 % 1033,2 hPa 0,0 l/m 0 min 0 min 0 W/m 6,4 km/h (2 Bft) 97,87 %
26.02.2019 01:12 4,1 C 5,6 C 1,7 C 82 % 1033,2 hPa 0,0 l/m 0 min 0 min 0 W/m 3,2 km/h (1 Bft) 97,87 %
26.02.2019 01:14 4,1 C 5,6 C 1,7 C 82 % 1033,2 hPa 0,0 l/m 0 min 0 min 0 W/m 3,2 km/h (1 Bft) 93,48 %
26.02.2019 01:16 4,1 C 6,1 C 2,2 C 83 % 1033,2 hPa 0,0 l/m 0 min 0 min 0 W/m 3,2 km/h (1 Bft) 95,74 %
26.02.2019 01:18 4,2 C 6,1 C 2,2 C 83 % 1033,2 hPa 0,0 l/m 0 min 0 min 0 W/m 0,0 km/h (0 Bft) 97,87 %
26.02.2019 01:20 4,2 C 6,1 C 2,2 C 83 % 1033,1 hPa 0,0 l/m 0 min 0 min 0 W/m 6,4 km/h (2 Bft) 97,87 %
26.02.2019 01:22 4,3 C 6,1 C 2,8 C 84 % 1033,1 hPa 0,0 l/m 0 min 0 min 0 W/m 6,4 km/h (2 Bft) 95,74 %
26.02.2019 01:24 4,4 C 6,1 C 2,8 C 84 % 1033,2 hPa 0,0 l/m 0 min 0 min 0 W/m 9,7 km/h (2 Bft) 93,48 %
26.02.2019 01:26 4,4 C 6,1 C 3,3 C 84 % 1033,1 hPa 0,0 l/m 0 min 0 min 0 W/m 6,4 km/h (2 Bft) 97,87 %
26.02.2019 01:28 4,6 C 6,7 C 3,9 C 84 % 1033,1 hPa 0,0 l/m 0 min 0 min 0 W/m 9,7 km/h (2 Bft) 97,87 %
26.02.2019 01:30 4,7 C 6,7 C 3,9 C 84 % 1033,1 hPa 0,0 l/m 0 min 0 min 0 W/m 9,7 km/h (2 Bft) 95,74 %
26.02.2019 01:32 4,8 C 6,7 C 4,4 C 84 % 1033,2 hPa 0,0 l/m 0 min 0 min 0 W/m 6,4 km/h (2 Bft) 95,74 %
26.02.2019 01:34 4,9 C 6,7 C 4,4 C 84 % 1033,1 hPa 0,0 l/m 0 min 0 min 0 W/m 12,9 km/h (3 Bft) 97,87 %
26.02.2019 01:36 5,0 C 7,2 C 4,4 C 84 % 1033,1 hPa 0,0 l/m 0 min 0 min 0 W/m 6,4 km/h (2 Bft) 98,28 %
26.02.2019 01:38 5,1 C 7,2 C 5,0 C 84 % 1033,1 hPa 0,0 l/m 0 min 0 min 0 W/m 6,4 km/h (2 Bft) 94,29 %
26.02.2019 01:40 5,3 C 7,2 C 5,0 C 84 % 1033,1 hPa 0,0 l/m 0 min 0 min 0 W/m 6,4 km/h (2 Bft) 95,74 %
26.02.2019 01:42 5,4 C 7,2 C 5,6 C 83 % 1033,0 hPa 0,0 l/m 0 min 0 min 0 W/m 9,7 km/h (2 Bft) 95,74 %
26.02.2019 01:44 5,6 C 7,2 C 5,6 C 83 % 1033,0 hPa 0,0 l/m 0 min 0 min 0 W/m 9,7 km/h (2 Bft) 97,87 %
26.02.2019 01:46 5,7 C 7,2 C 5,6 C 82 % 1033,0 hPa 0,0 l/m 0 min 0 min 0 W/m 9,7 km/h (2 Bft) 97,87 %
26.02.2019 01:48 5,8 C 7,2 C 5,6 C 81 % 1032,9 hPa 0,0 l/m 0 min 0 min 0 W/m 6,4 km/h (2 Bft) 97,83 %
26.02.2019 01:50 5,9 C 7,2 C 5,6 C 81 % 1032,9 hPa 0,0 l/m 0 min 0 min 0 W/m 0,0 km/h (0 Bft) 95,74 %
26.02.2019 01:52 6,0 C 6,7 C 5,0 C 80 % 1032,9 hPa 0,0 l/m 0 min 0 min 0 W/m 3,2 km/h (1 Bft) 95,74 %
26.02.2019 01:54 6,1 C 6,7 C 5,0 C 80 % 1032,9 hPa 0,0 l/m 0 min 0 min 0 W/m 3,2 km/h (1 Bft) 97,87 %
26.02.2019 01:56 6,2 C 6,7 C 4,4 C 79 % 1032,9 hPa 0,0 l/m 0 min 0 min 0 W/m 6,4 km/h (2 Bft) 97,87 %
26.02.2019 01:58 6,2 C 6,7 C 3,9 C 79 % 1033,2 hPa 0,0 l/m 0 min 0 min 0 W/m 0,0 km/h (0 Bft) 97,87 %
26.02.2019 02:00 6,3 C 6,7 C 3,9 C 79 % 1033,2 hPa 0,0 l/m 0 min 0 min 0 W/m 3,2 km/h (1 Bft) 95,65 %
26.02.2019 02:02 6,3 C 6,1 C 3,9 C 78 % 1033,3 hPa 0,0 l/m 0 min 0 min 0 W/m 6,4 km/h (2 Bft) 97,87 %
26.02.2019 02:04 6,4 C 6,1 C 3,3 C 78 % 1033,3 hPa 0,0 l/m 0 min 0 min 0 W/m 3,2 km/h (1 Bft) 97,87 %
26.02.2019 02:06 6,4 C 5,6 C 3,3 C 78 % 1033,3 hPa 0,0 l/m 0 min 0 min 0 W/m 0,0 km/h (0 Bft) 98,31 %
26.02.2019 02:08 6,4 C 5,6 C 3,3 C 78 % 1033,4 hPa 0,0 l/m 0 min 0 min 0 W/m 3,2 km/h (1 Bft) 97,14 %
26.02.2019 02:10 6,4 C 5,6 C 3,3 C 78 % 1033,3 hPa 0,0 l/m 0 min 0 min 0 W/m 0,0 km/h (0 Bft) 97,87 %
26.02.2019 02:12 6,4 C 5,0 C 3,3 C 77 % 1033,3 hPa 0,0 l/m 0 min 0 min 0 W/m 0,0 km/h (0 Bft) 100,00 %
26.02.2019 02:14 6,4 C 5,0 C 2,8 C 77 % 1033,3 hPa 0,0 l/m 0 min 0 min 0 W/m 0,0 km/h (0 Bft) 100,00 %
26.02.2019 02:16 6,4 C 4,4 C 2,8 C 77 % 1033,3 hPa 0,0 l/m 0 min 0 min 0 W/m 0,0 km/h (0 Bft) 100,00 %
26.02.2019 02:18 6,4 C 4,4 C 2,8 C 77 % 1033,3 hPa 0,0 l/m 0 min 0 min 0 W/m 0,0 km/h (0 Bft) 100,00 %
26.02.2019 02:20 6,4 C 4,4 C 2,8 C 76 % 1033,3 hPa 0,0 l/m 0 min 0 min 0 W/m 0,0 km/h (0 Bft) 100,00 %
26.02.2019 02:22 6,4 C 4,4 C 2,8 C 76 % 1033,3 hPa 0,0 l/m 0 min 0 min 0 W/m 0,0 km/h (0 Bft) 100,00 %
26.02.2019 02:24 6,4 C 4,4 C 2,8 C 76 % 1033,4 hPa 0,0 l/m 0 min 0 min 0 W/m 3,2 km/h (1 Bft) 100,00 %
26.02.2019 02:26 6,3 C 4,4 C 2,8 C 76 % 1033,3 hPa 0,0 l/m 0 min 0 min 0 W/m 0,0 km/h (0 Bft) 100,00 %
26.02.2019 02:28 6,3 C 4,4 C 2,8 C 76 % 1033,3 hPa 0,0 l/m 0 min 0 min 0 W/m 3,2 km/h (1 Bft) 100,00 %
26.02.2019 02:30 6,2 C 5,0 C 2,8 C 76 % 1033,3 hPa 0,0 l/m 0 min 0 min 0 W/m 6,4 km/h (2 Bft) 100,00 %
26.02.2019 02:32 6,2 C 5,6 C 3,3 C 76 % 1033,2 hPa 0,0 l/m 0 min 0 min 0 W/m 9,7 km/h (2 Bft) 100,00 %
26.02.2019 02:34 6,2 C 5,6 C 3,9 C 77 % 1033,2 hPa 0,0 l/m 0 min 0 min 0 W/m 12,9 km/h (3 Bft) 100,00 %
26.02.2019 02:36 6,2 C 6,1 C 3,9 C 77 % 1033,2 hPa 0,0 l/m 0 min 0 min 0 W/m 9,7 km/h (2 Bft) 100,00 %
26.02.2019 02:38 6,2 C 6,7 C 4,4 C 77 % 1033,2 hPa 0,0 l/m 0 min 0 min 0 W/m 9,7 km/h (2 Bft) 100,00 %
26.02.2019 02:40 6,2 C 6,7 C 5,0 C 77 % 1033,2 hPa 0,0 l/m 0 min 0 min 0 W/m 9,7 km/h (2 Bft) 97,87 %
26.02.2019 02:42 6,2 C 6,7 C 5,0 C 77 % 1033,2 hPa 0,0 l/m 0 min 0 min 0 W/m 9,7 km/h (2 Bft) 100,00 %
26.02.2019 02:44 6,3 C 6,7 C 5,0 C 77 % 1033,2 hPa 0,0 l/m 0 min 0 min 0 W/m 9,7 km/h (2 Bft) 100,00 %
26.02.2019 02:46 6,3 C 6,7 C 5,0 C 77 % 1033,1 hPa 0,0 l/m 0 min 0 min 0 W/m 12,9 km/h (3 Bft) 100,00 %
26.02.2019 02:48 6,4 C 6,7 C 5,6 C 77 % 1033,1 hPa 0,0 l/m 0 min 0 min 0 W/m 16,1 km/h (3 Bft) 100,00 %
26.02.2019 02:50 6,4 C 6,7 C 5,6 C 77 % 1033,1 hPa 0,0 l/m 0 min 0 min 0 W/m 16,1 km/h (3 Bft) 100,00 %
26.02.2019 02:52 6,5 C 6,7 C 5,6 C 76 % 1033,0 hPa 0,0 l/m 0 min 0 min 0 W/m 16,1 km/h (3 Bft) 100,00 %
26.02.2019 02:54 6,6 C 6,7 C 5,6 C 76 % 1032,9 hPa 0,0 l/m 0 min 0 min 0 W/m 16,1 km/h (3 Bft) 97,87 %
26.02.2019 02:56 6,7 C 6,7 C 5,6 C 76 % 1032,9 hPa 0,0 l/m 0 min 0 min 0 W/m 16,1 km/h (3 Bft) 97,87 %
26.02.2019 02:58 6,8 C 6,7 C 5,6 C 76 % 1032,8 hPa 0,0 l/m 0 min 0 min 0 W/m 12,9 km/h (3 Bft) 97,83 %
26.02.2019 03:00 6,8 C 6,7 C 5,6 C 75 % 1032,8 hPa 0,0 l/m 0 min 0 min 0 W/m 22,5 km/h (4 Bft) 95,74 %
26.02.2019 03:02 6,9 C 6,7 C 5,6 C 75 % 1032,8 hPa 0,0 l/m 0 min 0 min 0 W/m 16,1 km/h (3 Bft) 97,87 %
26.02.2019 03:04 6,9 C 6,7 C 6,1 C 75 % 1032,7 hPa 0,0 l/m 0 min 0 min 0 W/m 22,5 km/h (4 Bft) 97,87 %
26.02.2019 03:06 7,0 C 6,7 C 6,1 C 75 % 1032,7 hPa 0,0 l/m 0 min 0 min 0 W/m 16,1 km/h (3 Bft) 98,31 %
26.02.2019 03:08 7,1 C 7,2 C 6,1 C 75 % 1032,7 hPa 0,0 l/m 0 min 0 min 0 W/m 16,1 km/h (3 Bft) 97,14 %
26.02.2019 03:10 7,1 C 7,2 C 6,1 C 74 % 1032,6 hPa 0,0 l/m 0 min 0 min 0 W/m 16,1 km/h (3 Bft) 97,83 %
26.02.2019 03:12 7,2 C 7,2 C 6,1 C 75 % 1032,6 hPa 0,0 l/m 0 min 0 min 0 W/m 16,1 km/h (3 Bft) 95,74 %
26.02.2019 03:14 7,2 C 7,2 C 6,1 C 74 % 1032,6 hPa 0,0 l/m 0 min 0 min 0 W/m 16,1 km/h (3 Bft) 97,87 %
26.02.2019 03:16 7,3 C 7,2 C 6,1 C 75 % 1032,5 hPa 0,0 l/m 0 min 0 min 0 W/m 12,9 km/h (3 Bft) 97,87 %
26.02.2019 03:18 7,3 C 6,7 C 6,1 C 74 % 1032,5 hPa 0,0 l/m 0 min 0 min 0 W/m 19,3 km/h (3 Bft) 95,74 %
26.02.2019 03:20 7,3 C 6,7 C 6,1 C 74 % 1032,5 hPa 0,0 l/m 0 min 0 min 0 W/m 16,1 km/h (3 Bft) 97,87 %
26.02.2019 03:22 7,3 C 6,7 C 6,1 C 74 % 1032,4 hPa 0,0 l/m 0 min 0 min 0 W/m 16,1 km/h (3 Bft) 97,83 %
26.02.2019 03:24 7,4 C 6,7 C 6,1 C 74 % 1032,4 hPa 0,0 l/m 0 min 0 min 0 W/m 12,9 km/h (3 Bft) 97,87 %
26.02.2019 03:26 7,4 C 6,7 C 6,1 C 74 % 1032,5 hPa 0,0 l/m 0 min 0 min 0 W/m 12,9 km/h (3 Bft) 97,87 %
26.02.2019 03:28 7,4 C 6,7 C 6,1 C 74 % 1032,5 hPa 0,0 l/m 0 min 0 min 0 W/m 12,9 km/h (3 Bft) 97,87 %
26.02.2019 03:30 7,4 C 6,7 C 5,6 C 75 % 1032,5 hPa 0,0 l/m 0 min 0 min 0 W/m 9,7 km/h (2 Bft) 97,87 %
26.02.2019 03:32 7,4 C 6,7 C 5,6 C 75 % 1032,5 hPa 0,0 l/m 0 min 0 min 0 W/m 12,9 km/h (3 Bft) 97,83 %
26.02.2019 03:34 7,4 C 6,7 C 5,6 C 75 % 1032,5 hPa 0,0 l/m 0 min 0 min 0 W/m 9,7 km/h (2 Bft) 93,62 %
26.02.2019 03:36 7,4 C 6,7 C 5,6 C 75 % 1032,5 hPa 0,0 l/m 0 min 0 min 0 W/m 6,4 km/h (2 Bft) 96,61 %
26.02.2019 03:38 7,4 C 6,7 C 5,6 C 75 % 1032,5 hPa 0,0 l/m 0 min 0 min 0 W/m 12,9 km/h (3 Bft) 94,29 %
26.02.2019 03:40 7,3 C 6,1 C 5,6 C 75 % 1032,5 hPa 0,0 l/m 0 min 0 min 0 W/m 9,7 km/h (2 Bft) 95,74 %
26.02.2019 03:42 7,3 C 6,1 C 5,6 C 75 % 1032,5 hPa 0,0 l/m 0 min 0 min 0 W/m 12,9 km/h (3 Bft) 97,87 %
26.02.2019 03:44 7,3 C 6,1 C 5,0 C 75 % 1032,5 hPa 0,0 l/m 0 min 0 min 0 W/m 6,4 km/h (2 Bft) 100,00 %
26.02.2019 03:46 7,3 C 6,1 C 5,0 C 75 % 1032,5 hPa 0,0 l/m 0 min 0 min 0 W/m 12,9 km/h (3 Bft) 100,00 %
26.02.2019 03:48 7,3 C 6,1 C 5,0 C 75 % 1032,5 hPa 0,0 l/m 0 min 0 min 0 W/m 12,9 km/h (3 Bft) 97,87 %
26.02.2019 03:50 7,2 C 6,1 C 5,0 C 75 % 1032,5 hPa 0,0 l/m 0 min 0 min 0 W/m 12,9 km/h (3 Bft) 97,87 %
26.02.2019 03:52 7,2 C 6,1 C 5,0 C 75 % 1032,5 hPa 0,0 l/m 0 min 0 min 0 W/m 9,7 km/h (2 Bft) 97,87 %
26.02.2019 03:54 7,2 C 6,1 C 5,0 C 75 % 1032,6 hPa 0,0 l/m 0 min 0 min 0 W/m 6,4 km/h (2 Bft) 97,87 %
26.02.2019 03:56 7,1 C 6,1 C 5,0 C 75 % 1032,6 hPa 0,0 l/m 0 min 0 min 0 W/m 6,4 km/h (2 Bft) 95,65 %
26.02.2019 03:58 7,1 C 6,1 C 5,0 C 75 % 1032,6 hPa 0,0 l/m 0 min 0 min 0 W/m 9,7 km/h (2 Bft) 97,87 %
26.02.2019 04:00 7,1 C 6,1 C 5,0 C 75 % 1032,6 hPa 0,0 l/m 0 min 0 min 0 W/m 6,4 km/h (2 Bft) 97,87 %
26.02.2019 04:02 7,1 C 5,6 C 4,4 C 75 % 1032,6 hPa 0,0 l/m 0 min 0 min 0 W/m 0,0 km/h (0 Bft) 95,83 %
26.02.2019 04:04 7,0 C 5,6 C 4,4 C 75 % 1032,6 hPa 0,0 l/m 0 min 0 min 0 W/m 6,4 km/h (2 Bft) 97,87 %
26.02.2019 04:06 7,0 C 5,6 C 4,4 C 75 % 1032,6 hPa 0,0 l/m 0 min 0 min 0 W/m 9,7 km/h (2 Bft) 96,55 %
26.02.2019 04:08 6,9 C 5,6 C 4,4 C 75 % 1032,5 hPa 0,0 l/m 0 min 0 min 0 W/m 9,7 km/h (2 Bft) 97,14 %
26.02.2019 04:10 6,9 C 5,6 C 4,4 C 75 % 1032,6 hPa 0,0 l/m 0 min 0 min 0 W/m 9,7 km/h (2 Bft) 97,87 %
26.02.2019 04:12 6,8 C 5,6 C 4,4 C 75 % 1032,5 hPa 0,0 l/m 0 min 0 min 0 W/m 9,7 km/h (2 Bft) 95,74 %
26.02.2019 04:14 6,8 C 5,6 C 4,4 C 75 % 1032,5 hPa 0,0 l/m 0 min 0 min 0 W/m 9,7 km/h (2 Bft) 95,74 %
26.02.2019 04:16 6,7 C 5,6 C 4,4 C 75 % 1032,5 hPa 0,0 l/m 0 min 0 min 0 W/m 9,7 km/h (2 Bft) 95,74 %
26.02.2019 04:18 6,7 C 5,6 C 4,4 C 76 % 1032,5 hPa 0,0 l/m 0 min 0 min 0 W/m 9,7 km/h (2 Bft) 95,74 %
26.02.2019 04:20 6,6 C 5,6 C 4,4 C 76 % 1032,6 hPa 0,0 l/m 0 min 0 min 0 W/m 6,4 km/h (2 Bft) 95,65 %
26.02.2019 04:22 6,6 C 5,6 C 4,4 C 76 % 1032,6 hPa 0,0 l/m 0 min 0 min 0 W/m 6,4 km/h (2 Bft) 93,62 %
26.02.2019 04:24 6,6 C 5,6 C 4,4 C 76 % 1032,5 hPa 0,0 l/m 0 min 0 min 0 W/m 9,7 km/h (2 Bft) 95,74 %
26.02.2019 04:26 6,5 C 5,6 C 4,4 C 76 % 1032,4 hPa 0,0 l/m 0 min 0 min 0 W/m 9,7 km/h (2 Bft) 95,74 %
26.02.2019 04:28 6,4 C 5,6 C 4,4 C 76 % 1032,3 hPa 0,0 l/m 0 min 0 min 0 W/m 9,7 km/h (2 Bft) 95,74 %
26.02.2019 04:30 6,4 C 5,6 C 4,4 C 76 % 1032,3 hPa 0,0 l/m 0 min 0 min 0 W/m 9,7 km/h (2 Bft) 95,83 %
26.02.2019 04:32 6,4 C 5,6 C 4,4 C 76 % 1032,2 hPa 0,0 l/m 0 min 0 min 0 W/m 9,7 km/h (2 Bft) 95,65 %
26.02.2019 04:34 6,4 C 5,6 C 4,4 C 76 % 1032,2 hPa 0,0 l/m 0 min 0 min 0 W/m 16,1 km/h (3 Bft) 97,87 %
26.02.2019 04:36 6,3 C 5,6 C 5,0 C 76 % 1032,1 hPa 0,0 l/m 0 min 0 min 0 W/m 16,1 km/h (3 Bft) 97,87 %
26.02.2019 04:38 6,3 C 5,6 C 4,4 C 76 % 1032,1 hPa 0,0 l/m 0 min 0 min 0 W/m 12,9 km/h (3 Bft) 97,87 %
26.02.2019 04:40 6,3 C 5,6 C 4,4 C 76 % 1032,1 hPa 0,0 l/m 0 min 0 min 0 W/m 6,4 km/h (2 Bft) 97,87 %
26.02.2019 04:42 6,3 C 5,6 C 4,4 C 77 % 1032,2 hPa 0,0 l/m 0 min 0 min 0 W/m 9,7 km/h (2 Bft) 95,65 %
26.02.2019 04:44 6,2 C 5,6 C 4,4 C 77 % 1032,1 hPa 0,0 l/m 0 min 0 min 0 W/m 12,9 km/h (3 Bft) 97,87 %
26.02.2019 04:46 6,2 C 5,6 C 4,4 C 77 % 1032,1 hPa 0,0 l/m 0 min 0 min 0 W/m 6,4 km/h (2 Bft) 97,87 %
26.02.2019 04:48 6,2 C 5,6 C 4,4 C 77 % 1032,1 hPa 0,0 l/m 0 min 0 min 0 W/m 9,7 km/h (2 Bft) 95,74 %
26.02.2019 04:50 6,2 C 5,0 C 4,4 C 77 % 1032,2 hPa 0,0 l/m 0 min 0 min 0 W/m 6,4 km/h (2 Bft) 97,87 %
26.02.2019 04:52 6,2 C 5,0 C 3,9 C 77 % 1032,2 hPa 0,0 l/m 0 min 0 min 0 W/m 3,2 km/h (1 Bft) 97,87 %
26.02.2019 04:54 6,1 C 5,0 C 3,9 C 77 % 1032,2 hPa 0,0 l/m 0 min 0 min 0 W/m 0,0 km/h (0 Bft) 97,83 %
26.02.2019 04:56 6,1 C 4,4 C 3,9 C 77 % 1032,3 hPa 0,0 l/m 0 min 0 min 0 W/m 0,0 km/h (0 Bft) 97,96 %
26.02.2019 04:58 6,1 C 3,9 C 3,3 C 76 % 1032,3 hPa 0,0 l/m 0 min 0 min 0 W/m 0,0 km/h (0 Bft) 97,87 %
26.02.2019 05:00 6,1 C 3,9 C 3,3 C 76 % 1032,4 hPa 0,0 l/m 0 min 0 min 0 W/m 0,0 km/h (0 Bft) 97,87 %
26.02.2019 05:02 6,0 C 3,9 C 2,8 C 76 % 1032,4 hPa 0,0 l/m 0 min 0 min 0 W/m 0,0 km/h (0 Bft) 97,87 %
26.02.2019 05:04 5,9 C 3,3 C 2,8 C 76 % 1032,4 hPa 0,0 l/m 0 min 0 min 0 W/m 0,0 km/h (0 Bft) 95,74 %
26.02.2019 05:05 5,9 C 3,3 C 2,8 C 76 % 1032,4 hPa 0,0 l/m 0 min 0 min 0 W/m 0,0 km/h (0 Bft) 99,12 %
26.02.2019 05:10 5,8 C 3,3 C 2,2 C 76 % 1032,4 hPa 0,0 l/m 0 min 0 min 0 W/m 0,0 km/h (0 Bft) 100,00 %
26.02.2019 05:12 5,8 C 3,3 C 2,2 C 76 % 1032,4 hPa 0,0 l/m 0 min 0 min 0 W/m 0,0 km/h (0 Bft) 100,00 %
26.02.2019 05:17 5,6 C 2,8 C 2,2 C 76 % 1032,4 hPa 0,0 l/m 0 min 0 min 0 W/m 0,0 km/h (0 Bft) 97,30 %
26.02.2019 05:18 5,6 C 2,8 C 2,2 C 76 % 1032,4 hPa 0,0 l/m 0 min 0 min 0 W/m 0,0 km/h (0 Bft) 100,00 %
26.02.2019 05:20 5,5 C 2,8 C 2,2 C 76 % 1032,3 hPa 0,0 l/m 0 min 0 min 0 W/m 0,0 km/h (0 Bft) 95,74 %
26.02.2019 05:22 5,4 C 2,8 C 1,7 C 76 % 1032,3 hPa 0,0 l/m 0 min 0 min 0 W/m 0,0 km/h (0 Bft) 95,65 %
26.02.2019 05:24 5,3 C 2,8 C 1,7 C 76 % 1032,4 hPa 0,0 l/m 0 min 0 min 0 W/m 0,0 km/h (0 Bft) 97,87 %
26.02.2019 05:26 5,3 C 2,2 C 1,7 C 76 % 1032,4 hPa 0,0 l/m 0 min 0 min 0 W/m 0,0 km/h (0 Bft) 100,00 %
26.02.2019 05:28 5,2 C 2,2 C 1,7 C 77 % 1032,3 hPa 0,0 l/m 0 min 0 min 0 W/m 0,0 km/h (0 Bft) 100,00 %
26.02.2019 05:30 5,1 C 2,2 C 1,7 C 77 % 1032,3 hPa 0,0 l/m 0 min 0 min 0 W/m 0,0 km/h (0 Bft) 100,00 %
26.02.2019 05:32 5,0 C 2,2 C 1,7 C 77 % 1032,4 hPa 0,0 l/m 0 min 0 min 0 W/m 0,0 km/h (0 Bft) 100,00 %
26.02.2019 05:34 4,9 C 2,2 C 1,7 C 77 % 1032,4 hPa 0,0 l/m 0 min 0 min 0 W/m 0,0 km/h (0 Bft) 97,87 %
26.02.2019 05:36 4,9 C 2,2 C 1,7 C 77 % 1032,4 hPa 0,0 l/m 0 min 0 min 0 W/m 0,0 km/h (0 Bft) 100,00 %
26.02.2019 05:38 4,8 C 2,2 C 1,1 C 77 % 1032,4 hPa 0,0 l/m 0 min 0 min 0 W/m 0,0 km/h (0 Bft) 100,00 %
26.02.2019 05:40 4,7 C 2,2 C 1,1 C 77 % 1032,4 hPa 0,0 l/m 0 min 0 min 0 W/m 0,0 km/h (0 Bft) 100,00 %
26.02.2019 05:42 4,7 C 2,2 C 1,1 C 77 % 1032,4 hPa 0,0 l/m 0 min 0 min 0 W/m 0,0 km/h (0 Bft) 97,87 %
26.02.2019 05:44 4,6 C 2,2 C 1,1 C 78 % 1032,3 hPa 0,0 l/m 0 min 0 min 0 W/m 0,0 km/h (0 Bft) 100,00 %
26.02.2019 05:46 4,5 C 2,2 C 1,1 C 78 % 1032,4 hPa 0,0 l/m 0 min 0 min 0 W/m 0,0 km/h (0 Bft) 97,87 %
26.02.2019 05:48 4,4 C 2,2 C 1,1 C 78 % 1032,3 hPa 0,0 l/m 0 min 0 min 0 W/m 3,2 km/h (1 Bft) 100,00 %
26.02.2019 05:50 4,4 C 2,8 C 1,1 C 78 % 1032,3 hPa 0,0 l/m 0 min 0 min 0 W/m 3,2 km/h (1 Bft) 97,87 %
26.02.2019 05:52 4,4 C 3,3 C 1,7 C 79 % 1032,3 hPa 0,0 l/m 0 min 0 min 0 W/m 6,4 km/h (2 Bft) 93,62 %
26.02.2019 05:54 4,3 C 3,3 C 1,7 C 79 % 1032,3 hPa 0,0 l/m 0 min 0 min 0 W/m 3,2 km/h (1 Bft) 93,62 %
26.02.2019 05:56 4,3 C 3,9 C 1,7 C 80 % 1032,4 hPa 0,0 l/m 0 min 0 min 0 W/m 6,4 km/h (2 Bft) 93,48 %
26.02.2019 05:58 4,2 C 3,9 C 1,7 C 80 % 1032,3 hPa 0,0 l/m 0 min 0 min 0 W/m 3,2 km/h (1 Bft) 95,74 %
26.02.2019 06:00 4,2 C 3,3 C 1,7 C 80 % 1032,5 hPa 0,0 l/m 0 min 0 min 0 W/m 0,0 km/h (0 Bft) 95,74 %
26.02.2019 06:02 4,2 C 3,3 C 1,7 C 80 % 1032,4 hPa 0,0 l/m 0 min 0 min 0 W/m 0,0 km/h (0 Bft) 97,87 %
26.02.2019 06:04 4,2 C 2,8 C 1,7 C 81 % 1032,4 hPa 0,0 l/m 0 min 0 min 0 W/m 0,0 km/h (0 Bft) 95,74 %
26.02.2019 06:08 4,1 C 2,8 C 1,7 C 81 % 1032,4 hPa 0,0 l/m 0 min 0 min 0 W/m 0,0 km/h (0 Bft) 95,70 %
26.02.2019 06:10 4,1 C 2,8 C 1,7 C 81 % 1032,4 hPa 0,0 l/m 0 min 0 min 0 W/m 3,2 km/h (1 Bft) 95,74 %
26.02.2019 06:12 4,0 C 3,3 C 1,7 C 81 % 1032,5 hPa 0,0 l/m 0 min 0 min 0 W/m 6,4 km/h (2 Bft) 91,49 %
26.02.2019 06:14 4,0 C 3,3 C 1,7 C 81 % 1032,5 hPa 0,0 l/m 0 min 0 min 0 W/m 6,4 km/h (2 Bft) 95,74 %
26.02.2019 06:16 3,9 C 2,8 C 1,7 C 81 % 1032,5 hPa 0,0 l/m 0 min 0 min 0 W/m 0,0 km/h (0 Bft) 95,74 %
26.02.2019 06:18 3,9 C 2,8 C 1,1 C 81 % 1032,5 hPa 0,0 l/m 0 min 0 min 0 W/m 0,0 km/h (0 Bft) 95,74 %
26.02.2019 06:20 3,9 C 2,2 C 1,1 C 82 % 1032,5 hPa 0,0 l/m 0 min 0 min 0 W/m 0,0 km/h (0 Bft) 95,65 %
26.02.2019 06:22 3,9 C 2,2 C 1,1 C 82 % 1032,6 hPa 0,0 l/m 0 min 0 min 0 W/m 0,0 km/h (0 Bft) 95,74 %
26.02.2019 06:24 3,9 C 2,2 C 1,1 C 82 % 1032,6 hPa 0,0 l/m 0 min 0 min 0 W/m 0,0 km/h (0 Bft) 93,62 %
26.02.2019 06:26 3,8 C 2,2 C 1,1 C 82 % 1032,6 hPa 0,0 l/m 0 min 0 min 0 W/m 0,0 km/h (0 Bft) 95,74 %
26.02.2019 06:28 3,8 C 1,7 C 1,1 C 82 % 1032,6 hPa 0,0 l/m 0 min 0 min 0 W/m 0,0 km/h (0 Bft) 95,74 %
26.02.2019 06:30 3,8 C 1,7 C 1,1 C 82 % 1032,6 hPa 0,0 l/m 0 min 0 min 0 W/m 0,0 km/h (0 Bft) 93,62 %
26.02.2019 06:32 3,7 C 1,7 C 0,6 C 81 % 1032,6 hPa 0,0 l/m 0 min 0 min 0 W/m 0,0 km/h (0 Bft) 95,65 %
26.02.2019 06:34 3,7 C 1,1 C 0,6 C 81 % 1032,7 hPa 0,0 l/m 0 min 0 min 0 W/m 0,0 km/h (0 Bft) 95,74 %
26.02.2019 06:36 3,6 C 1,1 C 0,6 C 81 % 1032,7 hPa 0,0 l/m 0 min 0 min 0 W/m 0,0 km/h (0 Bft) 98,31 %
26.02.2019 06:38 3,6 C 1,1 C 0,6 C 81 % 1032,7 hPa 0,0 l/m 0 min 0 min 0 W/m 0,0 km/h (0 Bft) 97,14 %
26.02.2019 06:40 3,6 C 1,1 C 0,6 C 81 % 1032,7 hPa 0,0 l/m 0 min 0 min 0 W/m 0,0 km/h (0 Bft) 97,87 %
26.02.2019 06:42 3,5 C 1,1 C 0,6 C 81 % 1032,7 hPa 0,0 l/m 0 min 0 min 0 W/m 0,0 km/h (0 Bft) 97,83 %
26.02.2019 06:44 3,4 C 1,1 C 0,6 C 81 % 1032,7 hPa 0,0 l/m 0 min 0 min 0 W/m 0,0 km/h (0 Bft) 97,87 %
26.02.2019 06:46 3,4 C 1,1 C 0,6 C 81 % 1032,7 hPa 0,0 l/m 0 min 0 min 0 W/m 0,0 km/h (0 Bft) 95,74 %
26.02.2019 06:48 3,3 C 1,1 C 0,6 C 81 % 1032,8 hPa 0,0 l/m 0 min 0 min 0 W/m 0,0 km/h (0 Bft) 97,87 %
26.02.2019 06:50 3,3 C 1,1 C 0,6 C 81 % 1032,8 hPa 0,0 l/m 0 min 0 min 0 W/m 0,0 km/h (0 Bft) 95,74 %
26.02.2019 06:52 3,2 C 1,1 C 0,0 C 81 % 1032,8 hPa 0,0 l/m 0 min 0 min 0 W/m 0,0 km/h (0 Bft) 97,87 %
26.02.2019 06:54 3,2 C 1,1 C 0,0 C 81 % 1032,9 hPa 0,0 l/m 0 min 0 min 0 W/m 0,0 km/h (0 Bft) 97,83 %
26.02.2019 06:56 3,1 C 0,6 C 0,0 C 81 % 1032,9 hPa 0,0 l/m 0 min 0 min 0 W/m 0,0 km/h (0 Bft) 95,74 %
26.02.2019 06:58 3,1 C 0,6 C 0,0 C 82 % 1032,9 hPa 0,0 l/m 0 min 0 min 0 W/m 0,0 km/h (0 Bft) 100,00 %
26.02.2019 07:00 3,0 C 0,6 C 0,0 C 82 % 1032,8 hPa 0,0 l/m 0 min 0 min 0 W/m 0,0 km/h (0 Bft) 100,00 %
26.02.2019 07:02 2,9 C 0,6 C 0,0 C 82 % 1032,8 hPa 0,0 l/m 0 min 0 min 0 W/m 0,0 km/h (0 Bft) 100,00 %
26.02.2019 07:04 2,9 C 0,6 C 0,0 C 82 % 1032,9 hPa 0,0 l/m 0 min 0 min 0 W/m 0,0 km/h (0 Bft) 97,87 %
26.02.2019 07:06 2,9 C 0,6 C 0,0 C 82 % 1032,9 hPa 0,0 l/m 0 min 0 min 0 W/m 0,0 km/h (0 Bft) 100,00 %
26.02.2019 07:08 2,8 C 0,6 C 0,0 C 82 % 1032,9 hPa 0,0 l/m 0 min 0 min 0 W/m 0,0 km/h (0 Bft) 97,14 %
26.02.2019 07:10 2,8 C 1,1 C 0,0 C 82 % 1033,0 hPa 0,0 l/m 0 min 0 min 0 W/m 0,0 km/h (0 Bft) 100,00 %
26.02.2019 07:12 2,7 C 1,1 C 0,0 C 82 % 1032,9 hPa 0,0 l/m 0 min 0 min 0 W/m 0,0 km/h (0 Bft) 100,00 %
26.02.2019 07:14 2,7 C 1,1 C 0,0 C 82 % 1033,0 hPa 0,0 l/m 0 min 0 min 0 W/m 0,0 km/h (0 Bft) 93,62 %
26.02.2019 07:16 2,7 C 1,1 C 0,0 C 82 % 1033,0 hPa 0,0 l/m 0 min 0 min 0 W/m 0,0 km/h (0 Bft) 100,00 %
26.02.2019 07:18 2,7 C 1,1 C 0,0 C 83 % 1033,0 hPa 0,0 l/m 0 min 0 min 0 W/m 0,0 km/h (0 Bft) 100,00 %
26.02.2019 07:20 2,6 C 1,1 C 0,0 C 83 % 1032,9 hPa 0,0 l/m 0 min 0 min 0 W/m 0,0 km/h (0 Bft) 100,00 %
26.02.2019 07:22 2,6 C 1,1 C 0,0 C 83 % 1033,0 hPa 0,0 l/m 0 min 0 min 0 W/m 0,0 km/h (0 Bft) 95,74 %
26.02.2019 07:24 2,6 C 1,1 C 0,0 C 83 % 1033,0 hPa 0,0 l/m 0 min 0 min 0 W/m 0,0 km/h (0 Bft) 95,74 %
26.02.2019 07:26 2,5 C 1,1 C 0,0 C 83 % 1033,1 hPa 0,0 l/m 0 min 0 min 0 W/m 0,0 km/h (0 Bft) 97,87 %
26.02.2019 07:28 2,5 C 1,1 C 0,0 C 83 % 1033,1 hPa 0,0 l/m 0 min 0 min 0 W/m 0,0 km/h (0 Bft) 100,00 %
26.02.2019 07:30 2,5 C 1,1 C 0,0 C 83 % 1033,1 hPa 0,0 l/m 0 min 0 min 1 W/m 0,0 km/h (0 Bft) 97,83 %
26.02.2019 07:32 2,4 C 1,7 C 0,0 C 83 % 1033,1 hPa 0,0 l/m 0 min 0 min 5 W/m 0,0 km/h (0 Bft) 100,00 %
26.02.2019 07:34 2,4 C 1,1 C 0,0 C 83 % 1033,1 hPa 0,0 l/m 0 min 0 min 5 W/m 0,0 km/h (0 Bft) 100,00 %
26.02.2019 07:36 2,4 C 1,1 C 0,0 C 84 % 1033,1 hPa 0,0 l/m 0 min 0 min 7 W/m 0,0 km/h (0 Bft) 98,31 %
26.02.2019 07:38 2,4 C 1,1 C 0,0 C 84 % 1033,1 hPa 0,0 l/m 0 min 0 min 8 W/m 0,0 km/h (0 Bft) 97,56 %
26.02.2019 07:40 2,4 C 1,1 C 0,0 C 84 % 1033,0 hPa 0,0 l/m 0 min 0 min 9 W/m 0,0 km/h (0 Bft) 97,87 %
26.02.2019 07:42 2,3 C 1,1 C 0,0 C 84 % 1033,1 hPa 0,0 l/m 0 min 0 min 11 W/m 0,0 km/h (0 Bft) 97,87 %
26.02.2019 07:44 2,3 C 1,1 C 0,0 C 84 % 1033,1 hPa 0,0 l/m 0 min 0 min 11 W/m 0,0 km/h (0 Bft) 97,87 %
26.02.2019 07:46 2,3 C 1,1 C 0,0 C 84 % 1033,1 hPa 0,0 l/m 0 min 0 min 12 W/m 0,0 km/h (0 Bft) 97,87 %
26.02.2019 07:48 2,3 C 1,1 C 0,0 C 84 % 1033,0 hPa 0,0 l/m 0 min 0 min 12 W/m 0,0 km/h (0 Bft) 97,83 %
26.02.2019 07:50 2,2 C 1,1 C 0,0 C 84 % 1033,0 hPa 0,0 l/m 0 min 0 min 12 W/m 0,0 km/h (0 Bft) 97,87 %
26.02.2019 07:52 2,2 C 1,1 C 0,0 C 84 % 1033,0 hPa 0,0 l/m 0 min 0 min 14 W/m 0,0 km/h (0 Bft) 97,87 %
26.02.2019 07:54 2,2 C 1,1 C 0,0 C 84 % 1033,0 hPa 0,0 l/m 0 min 0 min 14 W/m 0,0 km/h (0 Bft) 97,87 %
26.02.2019 07:56 2,2 C 1,1 C 0,0 C 84 % 1033,0 hPa 0,0 l/m 0 min 0 min 15 W/m 0,0 km/h (0 Bft) 97,87 %
26.02.2019 07:58 2,2 C 1,1 C 0,0 C 84 % 1033,1 hPa 0,0 l/m 0 min 0 min 16 W/m 0,0 km/h (0 Bft) 97,83 %
26.02.2019 08:00 2,2 C 1,1 C 0,0 C 84 % 1033,1 hPa 0,0 l/m 0 min 0 min 16 W/m 0,0 km/h (0 Bft) 97,87 %
26.02.2019 08:02 2,2 C 1,1 C 0,0 C 84 % 1033,1 hPa 0,0 l/m 0 min 0 min 18 W/m 0,0 km/h (0 Bft) 95,74 %
26.02.2019 08:04 2,1 C 1,1 C 0,0 C 84 % 1033,1 hPa 0,0 l/m 0 min 0 min 18 W/m 0,0 km/h (0 Bft) 95,74 %
26.02.2019 08:06 2,1 C 1,1 C 0,0 C 84 % 1033,1 hPa 0,0 l/m 0 min 0 min 19 W/m 0,0 km/h (0 Bft) 97,87 %
26.02.2019 08:08 2,1 C 1,7 C 0,0 C 84 % 1033,1 hPa 0,0 l/m 0 min 0 min 19 W/m 0,0 km/h (0 Bft) 97,87 %
26.02.2019 08:10 2,1 C 1,1 C 0,0 C 84 % 1033,1 hPa 0,0 l/m 0 min 0 min 19 W/m 0,0 km/h (0 Bft) 95,65 %
26.02.2019 08:12 2,1 C 1,1 C 0,0 C 84 % 1033,2 hPa 0,0 l/m 0 min 0 min 21 W/m 0,0 km/h (0 Bft) 97,87 %
26.02.2019 08:14 2,1 C 1,7 C 0,0 C 85 % 1033,1 hPa 0,0 l/m 0 min 0 min 21 W/m 0,0 km/h (0 Bft) 91,49 %
26.02.2019 08:16 2,1 C 1,7 C 0,0 C 85 % 1033,2 hPa 0,0 l/m 0 min 0 min 21 W/m 0,0 km/h (0 Bft) 97,87 %
26.02.2019 08:18 2,0 C 1,7 C 0,6 C 85 % 1033,2 hPa 0,0 l/m 0 min 0 min 22 W/m 0,0 km/h (0 Bft) 97,87 %
26.02.2019 08:20 2,0 C 1,7 C 0,6 C 85 % 1033,1 hPa 0,0 l/m 0 min 0 min 23 W/m 0,0 km/h (0 Bft) 100,00 %
26.02.2019 08:22 2,0 C 2,2 C 0,6 C 85 % 1033,2 hPa 0,0 l/m 0 min 0 min 23 W/m 0,0 km/h (0 Bft) 95,65 %
26.02.2019 08:24 2,0 C 2,2 C 0,6 C 86 % 1033,2 hPa 0,0 l/m 0 min 0 min 25 W/m 0,0 km/h (0 Bft) 100,00 %
26.02.2019 08:26 2,0 C 2,2 C 0,6 C 86 % 1033,1 hPa 0,0 l/m 0 min 0 min 25 W/m 0,0 km/h (0 Bft) 100,00 %
26.02.2019 08:28 2,0 C 2,2 C 0,6 C 86 % 1033,1 hPa 0,0 l/m 0 min 0 min 25 W/m 0,0 km/h (0 Bft) 100,00 %
26.02.2019 08:30 2,1 C 2,2 C 0,6 C 86 % 1033,1 hPa 0,0 l/m 0 min 0 min 25 W/m 0,0 km/h (0 Bft) 100,00 %
26.02.2019 08:32 2,1 C 2,2 C 0,6 C 87 % 1033,1 hPa 0,0 l/m 0 min 0 min 26 W/m 0,0 km/h (0 Bft) 100,00 %
26.02.2019 08:34 2,1 C 2,2 C 0,6 C 87 % 1033,1 hPa 0,0 l/m 0 min 0 min 26 W/m 0,0 km/h (0 Bft) 100,00 %
26.02.2019 08:36 2,1 C 2,8 C 0,6 C 87 % 1033,1 hPa 0,0 l/m 0 min 0 min 28 W/m 0,0 km/h (0 Bft) 100,00 %
26.02.2019 08:38 2,1 C 2,8 C 0,6 C 87 % 1033,0 hPa 0,0 l/m 0 min 0 min 28 W/m 0,0 km/h (0 Bft) 95,74 %
26.02.2019 08:40 2,1 C 2,8 C 1,1 C 88 % 1033,1 hPa 0,0 l/m 0 min 0 min 29 W/m 0,0 km/h (0 Bft) 95,74 %
26.02.2019 08:42 2,1 C 2,8 C 1,1 C 88 % 1033,1 hPa 0,0 l/m 0 min 0 min 30 W/m 0,0 km/h (0 Bft) 100,00 %
26.02.2019 08:44 2,2 C 2,8 C 1,1 C 88 % 1033,0 hPa 0,0 l/m 0 min 0 min 30 W/m 0,0 km/h (0 Bft) 93,62 %
26.02.2019 08:46 2,2 C 2,8 C 1,1 C 88 % 1033,1 hPa 0,0 l/m 0 min 0 min 30 W/m 0,0 km/h (0 Bft) 100,00 %
26.02.2019 08:48 2,2 C 2,8 C 1,1 C 89 % 1033,1 hPa 0,0 l/m 0 min 0 min 32 W/m 0,0 km/h (0 Bft) 95,74 %
26.02.2019 08:50 2,2 C 3,3 C 1,1 C 88 % 1033,1 hPa 0,0 l/m 0 min 0 min 32 W/m 0,0 km/h (0 Bft) 95,74 %
26.02.2019 08:52 2,3 C 3,3 C 1,1 C 89 % 1033,1 hPa 0,0 l/m 0 min 0 min 32 W/m 0,0 km/h (0 Bft) 97,87 %
26.02.2019 08:54 2,3 C 3,3 C 1,1 C 89 % 1033,1 hPa 0,0 l/m 0 min 0 min 33 W/m 0,0 km/h (0 Bft) 89,36 %
26.02.2019 08:56 2,3 C 3,3 C 1,1 C 89 % 1033,1 hPa 0,0 l/m 0 min 0 min 33 W/m 0,0 km/h (0 Bft) 95,74 %
26.02.2019 08:58 2,4 C 3,3 C 1,7 C 89 % 1033,1 hPa 0,0 l/m 0 min 0 min 33 W/m 0,0 km/h (0 Bft) 97,83 %
26.02.2019 09:00 2,4 C 3,9 C 1,7 C 90 % 1033,1 hPa 0,0 l/m 0 min 0 min 35 W/m 0,0 km/h (0 Bft) 95,74 %
26.02.2019 09:02 2,4 C 3,9 C 1,7 C 90 % 1033,1 hPa 0,0 l/m 0 min 0 min 35 W/m 0,0 km/h (0 Bft) 97,87 %
26.02.2019 09:04 2,5 C 3,9 C 1,7 C 90 % 1033,1 hPa 0,0 l/m 0 min 0 min 35 W/m 0,0 km/h (0 Bft) 95,74 %
26.02.2019 09:06 2,6 C 3,9 C 1,7 C 90 % 1033,0 hPa 0,0 l/m 0 min 0 min 36 W/m 0,0 km/h (0 Bft) 95,74 %
26.02.2019 09:08 2,6 C 3,9 C 1,7 C 90 % 1032,9 hPa 0,0 l/m 0 min 0 min 37 W/m 0,0 km/h (0 Bft) 95,74 %
26.02.2019 09:10 2,7 C 4,4 C 1,7 C 90 % 1033,0 hPa 0,0 l/m 0 min 0 min 37 W/m 0,0 km/h (0 Bft) 95,65 %
26.02.2019 09:12 2,7 C 4,4 C 2,2 C 91 % 1033,1 hPa 0,0 l/m 0 min 0 min 37 W/m 0,0 km/h (0 Bft) 95,74 %
26.02.2019 09:14 2,8 C 4,4 C 2,2 C 91 % 1033,1 hPa 0,0 l/m 0 min 0 min 38 W/m 0,0 km/h (0 Bft) 95,74 %
26.02.2019 09:16 2,8 C 5,0 C 2,2 C 91 % 1033,1 hPa 0,0 l/m 0 min 0 min 39 W/m 3,2 km/h (1 Bft) 93,62 %
26.02.2019 09:18 2,9 C 5,0 C 2,2 C 91 % 1033,0 hPa 0,0 l/m 0 min 0 min 39 W/m 0,0 km/h (0 Bft) 95,74 %
26.02.2019 09:20 3,0 C 5,6 C 2,8 C 91 % 1033,0 hPa 0,0 l/m 0 min 0 min 40 W/m 0,0 km/h (0 Bft) 93,48 %
26.02.2019 09:22 3,1 C 6,1 C 2,8 C 92 % 1033,0 hPa 0,0 l/m 0 min 0 min 92 W/m 0,0 km/h (0 Bft) 95,74 %
26.02.2019 09:24 3,2 C 8,3 C 2,8 C 92 % 1033,0 hPa 0,0 l/m 2 min 0 min 248 W/m 0,0 km/h (0 Bft) 95,74 %
26.02.2019 09:26 3,4 C 10,0 C 2,8 C 92 % 1033,0 hPa 0,0 l/m 2 min 0 min 262 W/m 3,2 km/h (1 Bft) 95,74 %
26.02.2019 09:28 3,6 C 11,1 C 3,3 C 92 % 1033,0 hPa 0,0 l/m 2 min 0 min 264 W/m 3,2 km/h (1 Bft) 93,62 %
26.02.2019 09:30 3,8 C 11,7 C 3,9 C 93 % 1032,9 hPa 0,0 l/m 2 min 0 min 266 W/m 6,4 km/h (2 Bft) 93,62 %
26.02.2019 09:32 4,0 C 11,7 C 4,4 C 93 % 1032,9 hPa 0,0 l/m 2 min 0 min 275 W/m 6,4 km/h (2 Bft) 93,48 %
26.02.2019 09:34 4,3 C 11,7 C 5,0 C 93 % 1032,8 hPa 0,0 l/m 2 min 0 min 277 W/m 9,7 km/h (2 Bft) 95,74 %
26.02.2019 09:36 4,5 C 12,2 C 6,7 C 93 % 1032,9 hPa 0,0 l/m 2 min 0 min 281 W/m 9,7 km/h (2 Bft) 94,92 %
26.02.2019 09:38 4,7 C 12,2 C 8,3 C 93 % 1032,8 hPa 0,0 l/m 2 min 0 min 289 W/m 6,4 km/h (2 Bft) 94,44 %
26.02.2019 09:40 4,9 C 12,8 C 9,4 C 93 % 1032,9 hPa 0,0 l/m 2 min 0 min 296 W/m 6,4 km/h (2 Bft) 93,62 %
26.02.2019 09:42 5,2 C 12,8 C 10,0 C 93 % 1032,9 hPa 0,0 l/m 2 min 0 min 299 W/m 12,9 km/h (3 Bft) 97,87 %
26.02.2019 09:44 5,4 C 13,9 C 11,1 C 93 % 1032,9 hPa 0,0 l/m 2 min 0 min 306 W/m 9,7 km/h (2 Bft) 100,00 %
26.02.2019 09:46 5,7 C 13,3 C 11,7 C 93 % 1032,9 hPa 0,0 l/m 2 min 0 min 311 W/m 9,7 km/h (2 Bft) 93,62 %
26.02.2019 09:48 5,9 C 13,9 C 12,2 C 92 % 1032,9 hPa 0,0 l/m 2 min 0 min 316 W/m 9,7 km/h (2 Bft) 97,87 %
26.02.2019 09:50 6,2 C 13,3 C 12,2 C 92 % 1032,9 hPa 0,0 l/m 2 min 0 min 323 W/m 9,7 km/h (2 Bft) 97,87 %
26.02.2019 09:52 6,4 C 13,9 C 12,2 C 91 % 1032,9 hPa 0,0 l/m 2 min 0 min 328 W/m 12,9 km/h (3 Bft) 100,00 %
26.02.2019 09:54 6,7 C 13,3 C 12,8 C 90 % 1032,9 hPa 0,0 l/m 2 min 0 min 333 W/m 12,9 km/h (3 Bft) 100,00 %
26.02.2019 09:56 7,0 C 14,4 C 13,3 C 88 % 1032,8 hPa 0,0 l/m 2 min 0 min 338 W/m 9,7 km/h (2 Bft) 95,65 %
26.02.2019 09:58 7,2 C 14,4 C 13,3 C 87 % 1032,9 hPa 0,0 l/m 2 min 0 min 343 W/m 12,9 km/h (3 Bft) 97,87 %
26.02.2019 10:00 7,5 C 13,9 C 13,9 C 86 % 1032,9 hPa 0,0 l/m 2 min 0 min 348 W/m 9,7 km/h (2 Bft) 97,87 %
26.02.2019 10:02 7,7 C 15,0 C 13,9 C 84 % 1032,9 hPa 0,0 l/m 2 min 0 min 354 W/m 16,1 km/h (3 Bft) 100,00 %
26.02.2019 10:04 8,0 C 15,0 C 13,9 C 83 % 1032,9 hPa 0,0 l/m 2 min 0 min 359 W/m 12,9 km/h (3 Bft) 97,87 %
26.02.2019 10:06 8,2 C 13,9 C 12,8 C 81 % 1032,8 hPa 0,0 l/m 2 min 0 min 364 W/m 9,7 km/h (2 Bft) 97,83 %
26.02.2019 10:08 8,4 C 15,0 C 12,8 C 79 % 1032,8 hPa 0,0 l/m 2 min 0 min 368 W/m 6,4 km/h (2 Bft) 97,92 %
26.02.2019 10:10 8,7 C 16,1 C 11,1 C 78 % 1032,9 hPa 0,0 l/m 2 min 0 min 373 W/m 6,4 km/h (2 Bft) 97,87 %
26.02.2019 10:12 8,8 C 15,6 C 10,6 C 78 % 1032,9 hPa 0,0 l/m 2 min 0 min 377 W/m 9,7 km/h (2 Bft) 97,87 %
26.02.2019 10:14 9,1 C 15,0 C 10,0 C 76 % 1032,8 hPa 0,0 l/m 2 min 0 min 381 W/m 16,1 km/h (3 Bft) 95,74 %
26.02.2019 10:16 9,3 C 15,0 C 10,0 C 75 % 1032,9 hPa 0,0 l/m 2 min 0 min 387 W/m 9,7 km/h (2 Bft) 95,74 %
26.02.2019 10:18 9,5 C 15,0 C 10,0 C 75 % 1032,8 hPa 0,0 l/m 2 min 0 min 390 W/m 12,9 km/h (3 Bft) 97,83 %
26.02.2019 10:20 9,7 C 15,0 C 10,0 C 73 % 1032,8 hPa 0,0 l/m 2 min 0 min 394 W/m 16,1 km/h (3 Bft) 95,74 %
26.02.2019 10:22 9,9 C 15,6 C 9,4 C 72 % 1032,8 hPa 0,0 l/m 2 min 0 min 398 W/m 6,4 km/h (2 Bft) 97,87 %
26.02.2019 10:24 10,1 C 16,1 C 9,4 C 71 % 1032,8 hPa 0,0 l/m 2 min 0 min 402 W/m 12,9 km/h (3 Bft) 97,87 %
26.02.2019 10:26 10,3 C 16,1 C 10,0 C 71 % 1032,9 hPa 0,0 l/m 2 min 0 min 407 W/m 6,4 km/h (2 Bft) 97,87 %
26.02.2019 10:28 10,4 C 16,1 C 10,0 C 71 % 1032,9 hPa 0,0 l/m 2 min 0 min 410 W/m 9,7 km/h (2 Bft) 97,87 %
26.02.2019 10:30 10,6 C 16,7 C 10,0 C 70 % 1032,8 hPa 0,0 l/m 2 min 0 min 415 W/m 9,7 km/h (2 Bft) 100,00 %
26.02.2019 10:32 10,7 C 15,6 C 10,0 C 69 % 1032,9 hPa 0,0 l/m 2 min 0 min 418 W/m 9,7 km/h (2 Bft) 97,87 %
26.02.2019 10:34 10,9 C 15,6 C 10,0 C 69 % 1032,9 hPa 0,0 l/m 2 min 0 min 422 W/m 12,9 km/h (3 Bft) 97,87 %
26.02.2019 10:36 11,1 C 16,7 C 10,0 C 69 % 1032,9 hPa 0,0 l/m 2 min 0 min 427 W/m 12,9 km/h (3 Bft) 97,87 %
26.02.2019 10:38 11,2 C 17,2 C 10,0 C 69 % 1032,8 hPa 0,0 l/m 2 min 0 min 431 W/m 6,4 km/h (2 Bft) 97,87 %
26.02.2019 10:40 11,2 C 16,7 C 10,0 C 69 % 1032,9 hPa 0,0 l/m 2 min 0 min 433 W/m 9,7 km/h (2 Bft) 100,00 %
26.02.2019 10:42 11,3 C 16,7 C 10,0 C 68 % 1033,0 hPa 0,0 l/m 2 min 0 min 436 W/m 9,7 km/h (2 Bft) 97,83 %
26.02.2019 10:44 11,4 C 16,7 C 10,0 C 68 % 1032,9 hPa 0,0 l/m 2 min 0 min 440 W/m 9,7 km/h (2 Bft) 97,87 %
26.02.2019 10:46 11,4 C 17,2 C 10,0 C 68 % 1032,8 hPa 0,0 l/m 2 min 0 min 444 W/m 12,9 km/h (3 Bft) 97,87 %
26.02.2019 10:48 11,6 C 17,2 C 10,6 C 67 % 1032,9 hPa 0,0 l/m 2 min 0 min 448 W/m 6,4 km/h (2 Bft) 95,74 %
26.02.2019 10:50 11,7 C 17,2 C 10,6 C 67 % 1032,8 hPa 0,0 l/m 2 min 0 min 452 W/m 9,7 km/h (2 Bft) 97,87 %
26.02.2019 10:52 11,8 C 17,8 C 10,6 C 67 % 1032,8 hPa 0,0 l/m 2 min 0 min 457 W/m 6,4 km/h (2 Bft) 95,74 %
26.02.2019 10:54 11,9 C 16,7 C 10,6 C 66 % 1032,8 hPa 0,0 l/m 2 min 0 min 461 W/m 12,9 km/h (3 Bft) 97,83 %
26.02.2019 10:56 12,0 C 16,7 C 10,6 C 65 % 1032,9 hPa 0,0 l/m 2 min 0 min 462 W/m 9,7 km/h (2 Bft) 97,87 %
26.02.2019 10:58 12,1 C 17,8 C 10,6 C 65 % 1032,8 hPa 0,0 l/m 2 min 0 min 462 W/m 6,4 km/h (2 Bft) 100,00 %
26.02.2019 11:00 12,2 C 18,3 C 10,6 C 65 % 1032,9 hPa 0,0 l/m 2 min 0 min 468 W/m 6,4 km/h (2 Bft) 97,87 %
26.02.2019 11:02 12,2 C 18,3 C 10,6 C 65 % 1032,9 hPa 0,0 l/m 2 min 0 min 472 W/m 6,4 km/h (2 Bft) 97,87 %
26.02.2019 11:04 12,3 C 18,9 C 10,6 C 65 % 1033,0 hPa 0,0 l/m 2 min 0 min 476 W/m 6,4 km/h (2 Bft) 97,87 %
26.02.2019 11:06 12,3 C 18,3 C 10,6 C 65 % 1032,9 hPa 0,0 l/m 2 min 0 min 481 W/m 9,7 km/h (2 Bft) 95,65 %
26.02.2019 11:08 12,4 C 19,4 C 11,1 C 65 % 1032,8 hPa 0,0 l/m 2 min 0 min 484 W/m 9,7 km/h (2 Bft) 97,87 %
26.02.2019 11:10 12,6 C 18,3 C 11,1 C 65 % 1032,8 hPa 0,0 l/m 2 min 0 min 486 W/m 12,9 km/h (3 Bft) 97,87 %
26.02.2019 11:12 12,6 C 18,3 C 11,1 C 65 % 1032,8 hPa 0,0 l/m 2 min 0 min 489 W/m 6,4 km/h (2 Bft) 93,62 %
26.02.2019 11:14 12,7 C 18,3 C 11,1 C 65 % 1033,0 hPa 0,0 l/m 2 min 0 min 490 W/m 6,4 km/h (2 Bft) 95,74 %
26.02.2019 11:16 12,8 C 18,3 C 11,1 C 65 % 1032,9 hPa 0,0 l/m 2 min 0 min 492 W/m 9,7 km/h (2 Bft) 95,74 %
26.02.2019 11:18 12,8 C 18,3 C 11,1 C 65 % 1033,0 hPa 0,0 l/m 2 min 0 min 491 W/m 9,7 km/h (2 Bft) 91,30 %
26.02.2019 11:20 12,9 C 18,9 C 11,1 C 65 % 1032,9 hPa 0,0 l/m 2 min 0 min 496 W/m 9,7 km/h (2 Bft) 91,49 %
26.02.2019 11:22 12,9 C 18,9 C 11,1 C 65 % 1032,8 hPa 0,0 l/m 2 min 0 min 501 W/m 9,7 km/h (2 Bft) 93,62 %
26.02.2019 11:24 13,1 C 18,9 C 11,1 C 64 % 1032,9 hPa 0,0 l/m 2 min 0 min 505 W/m 6,4 km/h (2 Bft) 93,62 %
26.02.2019 11:26 13,1 C 20,0 C 11,7 C 65 % 1032,8 hPa 0,0 l/m 2 min 0 min 506 W/m 6,4 km/h (2 Bft) 93,62 %
26.02.2019 11:28 13,2 C 21,7 C 11,7 C 66 % 1032,8 hPa 0,0 l/m 2 min 0 min 508 W/m 6,4 km/h (2 Bft) 95,65 %
26.02.2019 11:30 13,3 C 21,1 C 11,7 C 65 % 1032,8 hPa 0,0 l/m 2 min 0 min 511 W/m 6,4 km/h (2 Bft) 93,62 %
26.02.2019 11:32 13,4 C 20,6 C 11,7 C 65 % 1032,8 hPa 0,0 l/m 2 min 0 min 514 W/m 6,4 km/h (2 Bft) 93,62 %
26.02.2019 11:34 13,5 C 21,1 C 11,7 C 65 % 1032,8 hPa 0,0 l/m 2 min 0 min 516 W/m 3,2 km/h (1 Bft) 93,62 %
26.02.2019 11:36 13,7 C 22,8 C 12,2 C 65 % 1032,7 hPa 0,0 l/m 2 min 0 min 518 W/m 0,0 km/h (0 Bft) 93,62 %
26.02.2019 11:38 13,8 C 22,8 C 12,2 C 65 % 1032,7 hPa 0,0 l/m 2 min 0 min 521 W/m 3,2 km/h (1 Bft) 93,62 %
26.02.2019 11:40 13,8 C 22,8 C 12,2 C 64 % 1032,7 hPa 0,0 l/m 2 min 0 min 524 W/m 6,4 km/h (2 Bft) 91,30 %
26.02.2019 11:42 14,0 C 22,2 C 12,2 C 64 % 1032,7 hPa 0,0 l/m 2 min 0 min 526 W/m 6,4 km/h (2 Bft) 93,62 %
26.02.2019 11:44 14,2 C 22,2 C 12,2 C 64 % 1032,7 hPa 0,0 l/m 2 min 0 min 526 W/m 9,7 km/h (2 Bft) 93,62 %
26.02.2019 11:46 14,2 C 21,7 C 12,8 C 64 % 1032,7 hPa 0,0 l/m 2 min 0 min 525 W/m 6,4 km/h (2 Bft) 95,74 %
26.02.2019 11:48 14,3 C 21,1 C 12,8 C 62 % 1032,7 hPa 0,0 l/m 2 min 0 min 528 W/m 9,7 km/h (2 Bft) 95,74 %
26.02.2019 11:50 14,4 C 20,6 C 12,8 C 62 % 1032,8 hPa 0,0 l/m 2 min 0 min 532 W/m 9,7 km/h (2 Bft) 93,62 %
26.02.2019 11:52 14,5 C 20,0 C 12,8 C 62 % 1032,7 hPa 0,0 l/m 2 min 0 min 534 W/m 9,7 km/h (2 Bft) 93,62 %
26.02.2019 11:54 14,6 C 20,6 C 12,8 C 61 % 1032,7 hPa 0,0 l/m 2 min 0 min 535 W/m 6,4 km/h (2 Bft) 95,65 %
26.02.2019 11:56 14,6 C 20,0 C 12,8 C 60 % 1032,7 hPa 0,0 l/m 2 min 0 min 537 W/m 9,7 km/h (2 Bft) 97,87 %
26.02.2019 11:58 14,7 C 20,0 C 12,8 C 59 % 1032,7 hPa 0,0 l/m 2 min 0 min 538 W/m 9,7 km/h (2 Bft) 95,74 %
26.02.2019 12:00 14,8 C 20,0 C 12,8 C 59 % 1032,7 hPa 0,0 l/m 2 min 0 min 539 W/m 9,7 km/h (2 Bft) 93,62 %
26.02.2019 12:02 14,9 C 21,1 C 13,3 C 60 % 1032,7 hPa 0,0 l/m 2 min 0 min 540 W/m 6,4 km/h (2 Bft) 95,74 %
26.02.2019 12:04 14,9 C 20,6 C 13,3 C 59 % 1032,7 hPa 0,0 l/m 2 min 0 min 541 W/m 9,7 km/h (2 Bft) 100,00 %
26.02.2019 12:08 15,1 C 22,2 C 13,3 C 60 % 1032,7 hPa 0,0 l/m 4 min 0 min 544 W/m 9,7 km/h (2 Bft) 98,95 %
26.02.2019 12:10 15,2 C 21,7 C 13,9 C 60 % 1032,8 hPa 0,0 l/m 2 min 0 min 545 W/m 6,4 km/h (2 Bft) 97,87 %
26.02.2019 12:12 15,2 C 22,8 C 13,9 C 60 % 1032,8 hPa 0,0 l/m 2 min 0 min 547 W/m 6,4 km/h (2 Bft) 97,87 %
26.02.2019 12:14 15,4 C 23,9 C 13,9 C 62 % 1032,8 hPa 0,0 l/m 2 min 0 min 548 W/m 3,2 km/h (1 Bft) 100,00 %
26.02.2019 12:16 15,5 C 22,8 C 13,9 C 61 % 1032,8 hPa 0,0 l/m 2 min 0 min 548 W/m 9,7 km/h (2 Bft) 95,65 %
26.02.2019 12:18 15,6 C 22,8 C 14,4 C 60 % 1032,8 hPa 0,0 l/m 2 min 0 min 549 W/m 6,4 km/h (2 Bft) 97,87 %
26.02.2019 12:20 15,7 C 23,3 C 14,4 C 60 % 1032,8 hPa 0,0 l/m 2 min 0 min 550 W/m 9,7 km/h (2 Bft) 93,62 %
26.02.2019 12:22 15,8 C 22,8 C 14,4 C 60 % 1032,8 hPa 0,0 l/m 2 min 0 min 549 W/m 9,7 km/h (2 Bft) 97,87 %
26.02.2019 12:24 15,8 C 21,1 C 14,4 C 58 % 1032,8 hPa 0,0 l/m 2 min 0 min 550 W/m 12,9 km/h (3 Bft) 97,87 %
26.02.2019 12:26 15,9 C 21,7 C 14,4 C 58 % 1032,8 hPa 0,0 l/m 2 min 0 min 550 W/m 6,4 km/h (2 Bft) 97,87 %
26.02.2019 12:28 16,0 C 21,1 C 14,4 C 58 % 1032,8 hPa 0,0 l/m 2 min 0 min 551 W/m 12,9 km/h (3 Bft) 97,83 %
26.02.2019 12:30 16,1 C 21,1 C 15,0 C 58 % 1032,8 hPa 0,0 l/m 2 min 0 min 552 W/m 9,7 km/h (2 Bft) 100,00 %
26.02.2019 12:32 16,1 C 22,2 C 15,6 C 58 % 1032,8 hPa 0,0 l/m 2 min 0 min 552 W/m 6,4 km/h (2 Bft) 97,87 %
26.02.2019 12:34 16,2 C 22,8 C 16,1 C 58 % 1032,8 hPa 0,0 l/m 2 min 0 min 554 W/m 6,4 km/h (2 Bft) 97,87 %
26.02.2019 12:36 16,2 C 21,7 C 17,8 C 58 % 1032,8 hPa 0,0 l/m 2 min 0 min 555 W/m 9,7 km/h (2 Bft) 97,87 %
26.02.2019 12:38 16,3 C 21,1 C 19,4 C 58 % 1032,8 hPa 0,0 l/m 2 min 0 min 555 W/m 9,7 km/h (2 Bft) 97,87 %
26.02.2019 12:40 16,3 C 21,7 C 20,6 C 58 % 1032,8 hPa 0,0 l/m 2 min 0 min 553 W/m 9,7 km/h (2 Bft) 100,00 %
26.02.2019 12:42 16,4 C 22,2 C 22,8 C 58 % 1032,7 hPa 0,0 l/m 2 min 0 min 557 W/m 9,7 km/h (2 Bft) 100,00 %
26.02.2019 12:44 16,5 C 23,3 C 22,8 C 58 % 1032,7 hPa 0,0 l/m 2 min 0 min 557 W/m 6,4 km/h (2 Bft) 100,00 %
26.02.2019 12:46 16,6 C 24,4 C 23,9 C 60 % 1032,6 hPa 0,0 l/m 2 min 0 min 558 W/m 6,4 km/h (2 Bft) 97,87 %
26.02.2019 12:48 16,7 C 23,9 C 23,9 C 59 % 1032,5 hPa 0,0 l/m 2 min 0 min 555 W/m 9,7 km/h (2 Bft) 97,87 %
26.02.2019 12:50 16,8 C 25,6 C 25,0 C 59 % 1032,5 hPa 0,0 l/m 2 min 0 min 556 W/m 6,4 km/h (2 Bft) 100,00 %
26.02.2019 12:52 16,9 C 25,6 C 25,6 C 59 % 1032,5 hPa 0,0 l/m 2 min 0 min 560 W/m 6,4 km/h (2 Bft) 97,83 %
26.02.2019 12:54 17,0 C 25,0 C 25,0 C 60 % 1032,5 hPa 0,0 l/m 2 min 0 min 561 W/m 6,4 km/h (2 Bft) 97,87 %
26.02.2019 12:56 17,1 C 25,0 C 25,6 C 58 % 1032,4 hPa 0,0 l/m 2 min 0 min 560 W/m 6,4 km/h (2 Bft) 97,87 %
26.02.2019 12:58 17,3 C 26,1 C 25,6 C 59 % 1032,5 hPa 0,0 l/m 2 min 0 min 561 W/m 3,2 km/h (1 Bft) 97,87 %
26.02.2019 13:00 17,4 C 27,8 C 25,6 C 61 % 1032,5 hPa 0,0 l/m 2 min 0 min 558 W/m 6,4 km/h (2 Bft) 97,87 %
26.02.2019 13:02 17,6 C 28,3 C 26,1 C 60 % 1032,4 hPa 0,0 l/m 2 min 0 min 558 W/m 3,2 km/h (1 Bft) 97,83 %
26.02.2019 13:04 17,7 C 27,8 C 26,1 C 60 % 1032,4 hPa 0,0 l/m 2 min 0 min 557 W/m 9,7 km/h (2 Bft) 97,87 %
26.02.2019 13:06 17,9 C 28,3 C 26,1 C 59 % 1032,4 hPa 0,0 l/m 2 min 0 min 558 W/m 6,4 km/h (2 Bft) 97,92 %
26.02.2019 13:08 18,1 C 27,2 C 26,1 C 58 % 1032,4 hPa 0,0 l/m 2 min 0 min 555 W/m 6,4 km/h (2 Bft) 97,87 %
26.02.2019 13:10 18,1 C 25,0 C 25,0 C 55 % 1032,4 hPa 0,0 l/m 2 min 0 min 555 W/m 6,4 km/h (2 Bft) 97,87 %
26.02.2019 13:12 18,2 C 26,7 C 26,1 C 57 % 1032,4 hPa 0,0 l/m 2 min 0 min 555 W/m 6,4 km/h (2 Bft) 91,49 %
26.02.2019 13:14 18,3 C 27,2 C 26,1 C 57 % 1032,4 hPa 0,0 l/m 2 min 0 min 555 W/m 6,4 km/h (2 Bft) 97,83 %
26.02.2019 13:16 18,4 C 27,8 C 25,6 C 57 % 1032,4 hPa 0,0 l/m 2 min 0 min 553 W/m 9,7 km/h (2 Bft) 97,87 %
26.02.2019 13:18 18,5 C 27,2 C 25,6 C 56 % 1032,4 hPa 0,0 l/m 2 min 0 min 553 W/m 3,2 km/h (1 Bft) 97,87 %
26.02.2019 13:20 18,6 C 27,2 C 25,0 C 57 % 1032,4 hPa 0,0 l/m 2 min 0 min 551 W/m 3,2 km/h (1 Bft) 97,87 %
26.02.2019 13:22 18,7 C 27,2 C 25,0 C 57 % 1032,3 hPa 0,0 l/m 2 min 0 min 549 W/m 9,7 km/h (2 Bft) 95,74 %
26.02.2019 13:24 18,8 C 27,2 C 24,4 C 57 % 1032,3 hPa 0,0 l/m 2 min 0 min 548 W/m 6,4 km/h (2 Bft) 97,83 %
26.02.2019 13:26 18,9 C 27,2 C 23,3 C 57 % 1032,2 hPa 0,0 l/m 2 min 0 min 546 W/m 6,4 km/h (2 Bft) 97,87 %
26.02.2019 13:28 18,9 C 26,7 C 22,8 C 55 % 1032,2 hPa 0,0 l/m 2 min 0 min 545 W/m 6,4 km/h (2 Bft) 97,87 %
26.02.2019 13:30 19,0 C 26,7 C 22,8 C 53 % 1032,2 hPa 0,0 l/m 2 min 0 min 545 W/m 6,4 km/h (2 Bft) 97,87 %
26.02.2019 13:32 19,1 C 27,2 C 22,8 C 54 % 1032,1 hPa 0,0 l/m 2 min 0 min 543 W/m 6,4 km/h (2 Bft) 95,74 %
26.02.2019 13:34 19,1 C 27,2 C 21,7 C 54 % 1032,1 hPa 0,0 l/m 2 min 0 min 543 W/m 6,4 km/h (2 Bft) 95,74 %
26.02.2019 13:36 19,2 C 27,2 C 20,0 C 54 % 1032,0 hPa 0,0 l/m 2 min 0 min 539 W/m 3,2 km/h (1 Bft) 95,65 %
26.02.2019 13:38 19,2 C 27,2 C 18,9 C 55 % 1032,1 hPa 0,0 l/m 2 min 0 min 542 W/m 6,4 km/h (2 Bft) 93,62 %
26.02.2019 13:40 19,3 C 27,8 C 17,8 C 53 % 1032,1 hPa 0,0 l/m 2 min 0 min 541 W/m 6,4 km/h (2 Bft) 95,83 %
26.02.2019 13:42 19,3 C 28,3 C 17,8 C 55 % 1032,1 hPa 0,0 l/m 2 min 0 min 540 W/m 6,4 km/h (2 Bft) 95,74 %
26.02.2019 13:44 19,4 C 28,3 C 17,8 C 54 % 1032,0 hPa 0,0 l/m 2 min 0 min 538 W/m 6,4 km/h (2 Bft) 95,74 %
26.02.2019 13:46 19,6 C 28,9 C 17,2 C 53 % 1032,0 hPa 0,0 l/m 2 min 0 min 536 W/m 6,4 km/h (2 Bft) 95,74 %
26.02.2019 13:48 19,6 C 27,8 C 17,2 C 52 % 1032,0 hPa 0,0 l/m 2 min 0 min 534 W/m 6,4 km/h (2 Bft) 95,65 %
26.02.2019 13:50 19,6 C 27,2 C 17,2 C 51 % 1032,0 hPa 0,0 l/m 2 min 0 min 533 W/m 3,2 km/h (1 Bft) 93,62 %
26.02.2019 13:52 19,6 C 27,8 C 17,2 C 50 % 1031,9 hPa 0,0 l/m 2 min 0 min 532 W/m 3,2 km/h (1 Bft) 93,62 %
26.02.2019 13:54 19,6 C 27,2 C 16,7 C 50 % 1031,9 hPa 0,0 l/m 2 min 0 min 530 W/m 3,2 km/h (1 Bft) 95,74 %
26.02.2019 13:56 19,7 C 28,3 C 17,2 C 52 % 1031,8 hPa 0,0 l/m 2 min 0 min 530 W/m 6,4 km/h (2 Bft) 95,74 %
26.02.2019 13:58 19,7 C 28,3 C 17,2 C 52 % 1031,8 hPa 0,0 l/m 2 min 0 min 528 W/m 9,7 km/h (2 Bft) 95,74 %
26.02.2019 14:00 19,8 C 28,9 C 17,2 C 50 % 1031,8 hPa 0,0 l/m 2 min 0 min 527 W/m 6,4 km/h (2 Bft) 100,00 %
26.02.2019 14:02 19,9 C 28,3 C 17,2 C 51 % 1031,7 hPa 0,0 l/m 2 min 0 min 525 W/m 9,7 km/h (2 Bft) 97,87 %
26.02.2019 14:04 19,9 C 27,2 C 17,2 C 48 % 1031,7 hPa 0,0 l/m 2 min 0 min 522 W/m 9,7 km/h (2 Bft) 95,74 %
26.02.2019 14:06 19,9 C 25,6 C 17,8 C 47 % 1031,7 hPa 0,0 l/m 2 min 0 min 521 W/m 6,4 km/h (2 Bft) 95,74 %
26.02.2019 14:08 19,8 C 25,6 C 17,8 C 47 % 1031,7 hPa 0,0 l/m 2 min 0 min 518 W/m 6,4 km/h (2 Bft) 95,74 %
26.02.2019 14:10 19,8 C 25,6 C 17,8 C 46 % 1031,7 hPa 0,0 l/m 2 min 0 min 515 W/m 6,4 km/h (2 Bft) 89,36 %
26.02.2019 14:12 19,8 C 26,1 C 17,8 C 47 % 1031,6 hPa 0,0 l/m 2 min 0 min 512 W/m 6,4 km/h (2 Bft) 97,87 %
26.02.2019 14:14 19,8 C 26,7 C 17,8 C 48 % 1031,6 hPa 0,0 l/m 2 min 0 min 510 W/m 3,2 km/h (1 Bft) 95,65 %
26.02.2019 14:16 19,8 C 26,1 C 18,3 C 47 % 1031,6 hPa 0,0 l/m 2 min 0 min 507 W/m 6,4 km/h (2 Bft) 95,74 %
26.02.2019 14:18 19,8 C 26,7 C 18,3 C 47 % 1031,6 hPa 0,0 l/m 2 min 0 min 503 W/m 9,7 km/h (2 Bft) 97,87 %
26.02.2019 14:20 19,8 C 26,1 C 18,3 C 46 % 1031,5 hPa 0,0 l/m 2 min 0 min 502 W/m 6,4 km/h (2 Bft) 97,87 %
26.02.2019 14:22 19,8 C 26,7 C 18,3 C 46 % 1031,5 hPa 0,0 l/m 2 min 0 min 498 W/m 6,4 km/h (2 Bft) 97,87 %
26.02.2019 14:24 19,8 C 26,7 C 18,3 C 47 % 1031,5 hPa 0,0 l/m 2 min 0 min 492 W/m 6,4 km/h (2 Bft) 97,87 %
26.02.2019 14:26 19,8 C 27,2 C 17,8 C 47 % 1031,5 hPa 0,0 l/m 2 min 0 min 489 W/m 3,2 km/h (1 Bft) 97,83 %
26.02.2019 14:28 19,9 C 26,7 C 18,3 C 46 % 1031,4 hPa 0,0 l/m 2 min 0 min 484 W/m 3,2 km/h (1 Bft) 97,87 %
26.02.2019 14:30 19,9 C 26,1 C 17,8 C 46 % 1031,3 hPa 0,0 l/m 2 min 0 min 482 W/m 6,4 km/h (2 Bft) 95,74 %
26.02.2019 14:32 19,9 C 25,6 C 17,8 C 45 % 1031,3 hPa 0,0 l/m 2 min 0 min 479 W/m 6,4 km/h (2 Bft) 97,87 %
26.02.2019 14:34 19,8 C 25,6 C 18,3 C 45 % 1031,3 hPa 0,0 l/m 2 min 0 min 476 W/m 9,7 km/h (2 Bft) 97,87 %
26.02.2019 14:36 19,8 C 26,1 C 17,8 C 47 % 1031,3 hPa 0,0 l/m 2 min 0 min 474 W/m 6,4 km/h (2 Bft) 97,87 %
26.02.2019 14:38 19,9 C 26,7 C 17,8 C 48 % 1031,2 hPa 0,0 l/m 2 min 0 min 470 W/m 6,4 km/h (2 Bft) 95,65 %
26.02.2019 14:40 19,9 C 26,1 C 17,8 C 46 % 1031,2 hPa 0,0 l/m 2 min 0 min 464 W/m 6,4 km/h (2 Bft) 97,87 %
26.02.2019 14:42 19,9 C 25,6 C 18,3 C 45 % 1031,2 hPa 0,0 l/m 2 min 0 min 460 W/m 6,4 km/h (2 Bft) 97,87 %
26.02.2019 14:44 19,9 C 26,7 C 17,8 C 48 % 1031,2 hPa 0,0 l/m 2 min 0 min 456 W/m 6,4 km/h (2 Bft) 97,87 %
26.02.2019 14:46 20,0 C 26,7 C 17,8 C 48 % 1031,2 hPa 0,0 l/m 2 min 0 min 454 W/m 3,2 km/h (1 Bft) 97,87 %
26.02.2019 14:48 20,0 C 26,1 C 17,8 C 46 % 1031,3 hPa 0,0 l/m 2 min 0 min 449 W/m 6,4 km/h (2 Bft) 97,87 %
26.02.2019 14:50 20,0 C 26,1 C 18,3 C 46 % 1031,2 hPa 0,0 l/m 2 min 0 min 446 W/m 6,4 km/h (2 Bft) 97,83 %
26.02.2019 14:52 20,1 C 26,7 C 18,3 C 47 % 1031,2 hPa 0,0 l/m 2 min 0 min 444 W/m 6,4 km/h (2 Bft) 97,87 %
26.02.2019 14:54 20,1 C 26,1 C 18,3 C 45 % 1031,2 hPa 0,0 l/m 2 min 0 min 436 W/m 6,4 km/h (2 Bft) 97,87 %
26.02.2019 14:56 20,1 C 25,0 C 18,3 C 45 % 1031,2 hPa 0,0 l/m 2 min 0 min 437 W/m 6,4 km/h (2 Bft) 97,87 %
26.02.2019 14:58 20,1 C 23,9 C 17,8 C 44 % 1031,2 hPa 0,0 l/m 2 min 0 min 431 W/m 9,7 km/h (2 Bft) 97,87 %
26.02.2019 15:00 20,0 C 24,4 C 18,3 C 44 % 1031,1 hPa 0,0 l/m 2 min 0 min 429 W/m 6,4 km/h (2 Bft) 97,87 %
26.02.2019 15:02 20,0 C 25,6 C 17,8 C 46 % 1031,1 hPa 0,0 l/m 2 min 0 min 424 W/m 6,4 km/h (2 Bft) 97,83 %
26.02.2019 15:04 20,1 C 26,1 C 18,3 C 47 % 1031,1 hPa 0,0 l/m 2 min 0 min 421 W/m 6,4 km/h (2 Bft) 100,00 %
26.02.2019 15:06 20,1 C 26,7 C 17,8 C 47 % 1031,0 hPa 0,0 l/m 2 min 0 min 419 W/m 6,4 km/h (2 Bft) 97,87 %
26.02.2019 15:08 20,2 C 27,2 C 17,8 C 49 % 1031,1 hPa 0,0 l/m 2 min 0 min 415 W/m 6,4 km/h (2 Bft) 100,00 %
26.02.2019 15:10 20,2 C 27,2 C 17,2 C 47 % 1031,0 hPa 0,0 l/m 2 min 0 min 413 W/m 6,4 km/h (2 Bft) 100,00 %
26.02.2019 15:12 20,2 C 26,7 C 17,8 C 46 % 1031,1 hPa 0,0 l/m 2 min 0 min 410 W/m 6,4 km/h (2 Bft) 100,00 %
26.02.2019 15:14 20,2 C 26,1 C 17,2 C 46 % 1031,0 hPa 0,0 l/m 2 min 0 min 405 W/m 0,0 km/h (0 Bft) 100,00 %
26.02.2019 15:16 20,3 C 26,7 C 17,2 C 47 % 1031,0 hPa 0,0 l/m 2 min 0 min 400 W/m 6,4 km/h (2 Bft) 93,62 %
26.02.2019 15:18 20,3 C 26,7 C 17,2 C 47 % 1030,9 hPa 0,0 l/m 2 min 0 min 396 W/m 6,4 km/h (2 Bft) 100,00 %
26.02.2019 15:20 20,4 C 26,7 C 17,2 C 47 % 1030,8 hPa 0,0 l/m 2 min 0 min 388 W/m 6,4 km/h (2 Bft) 100,00 %
26.02.2019 15:22 20,4 C 26,1 C 17,2 C 46 % 1030,7 hPa 0,0 l/m 2 min 0 min 384 W/m 0,0 km/h (0 Bft) 100,00 %
26.02.2019 15:24 20,4 C 25,6 C 17,2 C 46 % 1030,7 hPa 0,0 l/m 2 min 0 min 380 W/m 3,2 km/h (1 Bft) 100,00 %
26.02.2019 15:26 20,4 C 25,0 C 17,8 C 45 % 1030,7 hPa 0,0 l/m 2 min 0 min 376 W/m 6,4 km/h (2 Bft) 100,00 %
26.02.2019 15:28 20,4 C 25,6 C 17,2 C 48 % 1030,7 hPa 0,0 l/m 2 min 0 min 371 W/m 6,4 km/h (2 Bft) 100,00 %
26.02.2019 15:30 20,4 C 25,0 C 17,2 C 45 % 1030,7 hPa 0,0 l/m 2 min 0 min 366 W/m 6,4 km/h (2 Bft) 100,00 %
26.02.2019 15:32 20,3 C 24,4 C 17,2 C 45 % 1030,6 hPa 0,0 l/m 2 min 0 min 362 W/m 6,4 km/h (2 Bft) 100,00 %
26.02.2019 15:34 20,3 C 23,9 C 17,2 C 44 % 1030,5 hPa 0,0 l/m 2 min 0 min 359 W/m 6,4 km/h (2 Bft) 100,00 %
26.02.2019 15:36 20,2 C 22,8 C 17,8 C 44 % 1030,5 hPa 0,0 l/m 2 min 0 min 355 W/m 9,7 km/h (2 Bft) 100,00 %
26.02.2019 15:38 20,2 C 23,3 C 17,8 C 44 % 1030,5 hPa 0,0 l/m 2 min 0 min 352 W/m 6,4 km/h (2 Bft) 100,00 %
26.02.2019 15:40 20,1 C 23,3 C 18,3 C 44 % 1030,4 hPa 0,0 l/m 2 min 0 min 347 W/m 6,4 km/h (2 Bft) 100,00 %
26.02.2019 15:42 20,1 C 23,3 C 19,4 C 44 % 1030,4 hPa 0,0 l/m 2 min 0 min 344 W/m 6,4 km/h (2 Bft) 100,00 %
26.02.2019 15:44 20,1 C 23,9 C 20,0 C 45 % 1030,5 hPa 0,0 l/m 2 min 0 min 338 W/m 6,4 km/h (2 Bft) 97,87 %
26.02.2019 15:46 20,1 C 23,3 C 20,6 C 45 % 1030,5 hPa 0,0 l/m 2 min 0 min 329 W/m 3,2 km/h (1 Bft) 100,00 %
26.02.2019 15:48 20,0 C 23,3 C 21,1 C 45 % 1030,5 hPa 0,0 l/m 2 min 0 min 305 W/m 6,4 km/h (2 Bft) 95,65 %
26.02.2019 15:50 20,0 C 22,8 C 20,0 C 44 % 1030,5 hPa 0,0 l/m 2 min 0 min 279 W/m 6,4 km/h (2 Bft) 97,87 %
26.02.2019 15:52 19,9 C 21,7 C 18,9 C 45 % 1030,5 hPa 0,0 l/m 2 min 0 min 222 W/m 6,4 km/h (2 Bft) 100,00 %
26.02.2019 15:54 19,9 C 22,2 C 18,3 C 46 % 1030,5 hPa 0,0 l/m 2 min 0 min 242 W/m 3,2 km/h (1 Bft) 97,87 %
26.02.2019 15:56 19,8 C 22,2 C 17,8 C 45 % 1030,4 hPa 0,0 l/m 2 min 0 min 285 W/m 3,2 km/h (1 Bft) 100,00 %
26.02.2019 15:58 19,8 C 23,3 C 17,8 C 47 % 1030,5 hPa 0,0 l/m 2 min 0 min 298 W/m 6,4 km/h (2 Bft) 100,00 %
26.02.2019 16:00 19,8 C 23,9 C 18,3 C 46 % 1030,5 hPa 0,0 l/m 2 min 0 min 292 W/m 3,2 km/h (1 Bft) 97,83 %
26.02.2019 16:02 19,8 C 23,9 C 18,3 C 47 % 1030,4 hPa 0,0 l/m 2 min 0 min 290 W/m 6,4 km/h (2 Bft) 100,00 %
26.02.2019 16:04 19,8 C 23,9 C 18,9 C 47 % 1030,4 hPa 0,0 l/m 2 min 0 min 282 W/m 6,4 km/h (2 Bft) 97,87 %
26.02.2019 16:06 19,8 C 23,3 C 19,4 C 47 % 1030,4 hPa 0,0 l/m 2 min 0 min 274 W/m 6,4 km/h (2 Bft) 97,87 %
26.02.2019 16:08 19,8 C 23,3 C 19,4 C 48 % 1030,4 hPa 0,0 l/m 2 min 0 min 269 W/m 6,4 km/h (2 Bft) 95,74 %
26.02.2019 16:10 19,7 C 22,8 C 20,0 C 46 % 1030,4 hPa 0,0 l/m 2 min 0 min 261 W/m 6,4 km/h (2 Bft) 93,62 %
26.02.2019 16:12 19,7 C 22,8 C 20,0 C 45 % 1030,4 hPa 0,0 l/m 2 min 0 min 260 W/m 6,4 km/h (2 Bft) 95,65 %
26.02.2019 16:14 19,7 C 22,8 C 18,9 C 46 % 1030,4 hPa 0,0 l/m 2 min 0 min 259 W/m 6,4 km/h (2 Bft) 93,62 %
26.02.2019 16:16 19,7 C 22,2 C 17,8 C 45 % 1030,3 hPa 0,0 l/m 2 min 0 min 250 W/m 6,4 km/h (2 Bft) 95,74 %
26.02.2019 16:18 19,6 C 22,2 C 16,7 C 46 % 1030,3 hPa 0,0 l/m 2 min 0 min 234 W/m 3,2 km/h (1 Bft) 95,74 %
26.02.2019 16:20 19,6 C 22,2 C 16,1 C 47 % 1030,3 hPa 0,0 l/m 2 min 0 min 223 W/m 3,2 km/h (1 Bft) 95,74 %
26.02.2019 16:22 19,6 C 22,2 C 15,6 C 47 % 1030,3 hPa 0,0 l/m 2 min 0 min 211 W/m 3,2 km/h (1 Bft) 93,62 %
26.02.2019 16:24 19,6 C 22,2 C 15,6 C 47 % 1030,3 hPa 0,0 l/m 2 min 0 min 230 W/m 6,4 km/h (2 Bft) 97,83 %
26.02.2019 16:26 19,6 C 22,2 C 15,6 C 47 % 1030,3 hPa 0,0 l/m 2 min 0 min 228 W/m 3,2 km/h (1 Bft) 95,74 %
26.02.2019 16:28 19,5 C 22,2 C 15,0 C 46 % 1030,2 hPa 0,0 l/m 2 min 0 min 214 W/m 0,0 km/h (0 Bft) 95,74 %
26.02.2019 16:30 19,5 C 22,2 C 15,0 C 47 % 1030,2 hPa 0,0 l/m 2 min 0 min 197 W/m 3,2 km/h (1 Bft) 95,74 %
26.02.2019 16:32 19,4 C 22,2 C 14,4 C 48 % 1030,2 hPa 0,0 l/m 2 min 0 min 185 W/m 3,2 km/h (1 Bft) 89,36 %
26.02.2019 16:34 19,4 C 22,2 C 14,4 C 48 % 1030,2 hPa 0,0 l/m 2 min 0 min 186 W/m 3,2 km/h (1 Bft) 95,65 %
26.02.2019 16:36 19,4 C 22,2 C 13,9 C 47 % 1030,2 hPa 0,0 l/m 2 min 0 min 173 W/m 3,2 km/h (1 Bft) 93,62 %
26.02.2019 16:38 19,3 C 21,7 C 14,4 C 46 % 1030,2 hPa 0,0 l/m 0 min 0 min 73 W/m 6,4 km/h (2 Bft) 93,62 %
26.02.2019 16:40 19,3 C 20,0 C 13,9 C 47 % 1030,3 hPa 0,0 l/m 0 min 0 min 46 W/m 3,2 km/h (1 Bft) 95,74 %
26.02.2019 16:42 19,3 C 18,9 C 13,9 C 46 % 1030,2 hPa 0,0 l/m 0 min 0 min 42 W/m 0,0 km/h (0 Bft) 95,74 %
26.02.2019 16:44 19,2 C 18,3 C 13,9 C 47 % 1030,2 hPa 0,0 l/m 0 min 0 min 43 W/m 3,2 km/h (1 Bft) 95,74 %
26.02.2019 16:46 19,2 C 17,8 C 13,3 C 47 % 1030,3 hPa 0,0 l/m 0 min 0 min 38 W/m 3,2 km/h (1 Bft) 93,48 %
26.02.2019 16:48 19,1 C 17,2 C 13,3 C 48 % 1030,3 hPa 0,0 l/m 0 min 0 min 36 W/m 3,2 km/h (1 Bft) 95,74 %
26.02.2019 16:50 19,1 C 17,2 C 13,3 C 48 % 1030,3 hPa 0,0 l/m 0 min 0 min 48 W/m 3,2 km/h (1 Bft) 93,62 %
26.02.2019 16:52 18,9 C 17,2 C 13,3 C 48 % 1030,2 hPa 0,0 l/m 0 min 0 min 74 W/m 0,0 km/h (0 Bft) 97,87 %
26.02.2019 16:54 18,9 C 17,2 C 12,8 C 48 % 1030,2 hPa 0,0 l/m 2 min 0 min 92 W/m 0,0 km/h (0 Bft) 97,87 %
26.02.2019 16:56 18,8 C 18,3 C 12,8 C 48 % 1030,2 hPa 0,0 l/m 2 min 0 min 110 W/m 0,0 km/h (0 Bft) 95,74 %
26.02.2019 16:58 18,8 C 18,3 C 12,8 C 49 % 1030,2 hPa 0,0 l/m 2 min 0 min 104 W/m 0,0 km/h (0 Bft) 97,83 %
26.02.2019 17:00 18,7 C 18,3 C 12,2 C 48 % 1030,1 hPa 0,0 l/m 2 min 0 min 90 W/m 0,0 km/h (0 Bft) 100,00 %
26.02.2019 17:02 18,6 C 17,8 C 12,2 C 49 % 1030,2 hPa 0,0 l/m 0 min 0 min 61 W/m 0,0 km/h (0 Bft) 100,00 %
26.02.2019 17:04 18,5 C 17,2 C 12,2 C 49 % 1030,2 hPa 0,0 l/m 0 min 0 min 36 W/m 0,0 km/h (0 Bft) 100,00 %
26.02.2019 17:06 18,4 C 16,7 C 11,7 C 49 % 1030,2 hPa 0,0 l/m 0 min 0 min 33 W/m 0,0 km/h (0 Bft) 97,87 %
26.02.2019 17:08 18,4 C 16,7 C 11,7 C 49 % 1030,1 hPa 0,0 l/m 0 min 0 min 32 W/m 0,0 km/h (0 Bft) 97,87 %
26.02.2019 17:10 18,3 C 16,1 C 11,7 C 49 % 1030,2 hPa 0,0 l/m 0 min 0 min 30 W/m 0,0 km/h (0 Bft) 97,83 %
26.02.2019 17:12 18,2 C 16,1 C 11,7 C 49 % 1030,2 hPa 0,0 l/m 0 min 0 min 28 W/m 0,0 km/h (0 Bft) 97,87 %
26.02.2019 17:14 18,1 C 16,1 C 11,7 C 49 % 1030,1 hPa 0,0 l/m 0 min 0 min 28 W/m 0,0 km/h (0 Bft) 97,87 %
26.02.2019 17:16 18,0 C 16,1 C 11,1 C 49 % 1030,2 hPa 0,0 l/m 0 min 0 min 28 W/m 0,0 km/h (0 Bft) 95,74 %
26.02.2019 17:18 17,9 C 15,6 C 11,1 C 49 % 1030,2 hPa 0,0 l/m 0 min 0 min 26 W/m 0,0 km/h (0 Bft) 97,87 %
26.02.2019 17:20 17,8 C 15,6 C 11,1 C 50 % 1030,1 hPa 0,0 l/m 0 min 0 min 26 W/m 0,0 km/h (0 Bft) 97,87 %
26.02.2019 17:22 17,7 C 15,6 C 11,1 C 50 % 1030,1 hPa 0,0 l/m 0 min 0 min 25 W/m 0,0 km/h (0 Bft) 95,65 %
26.02.2019 17:24 17,6 C 15,0 C 11,1 C 50 % 1030,2 hPa 0,0 l/m 0 min 0 min 24 W/m 0,0 km/h (0 Bft) 97,87 %
26.02.2019 17:26 17,5 C 15,0 C 10,6 C 50 % 1030,2 hPa 0,0 l/m 0 min 0 min 22 W/m 0,0 km/h (0 Bft) 97,87 %
26.02.2019 17:28 17,4 C 15,0 C 10,6 C 50 % 1030,1 hPa 0,0 l/m 0 min 0 min 21 W/m 0,0 km/h (0 Bft) 97,87 %
26.02.2019 17:30 17,3 C 15,0 C 10,6 C 51 % 1030,1 hPa 0,0 l/m 0 min 0 min 21 W/m 0,0 km/h (0 Bft) 97,83 %
26.02.2019 17:32 17,2 C 14,4 C 10,6 C 51 % 1030,1 hPa 0,0 l/m 0 min 0 min 21 W/m 0,0 km/h (0 Bft) 97,87 %
26.02.2019 17:34 17,1 C 14,4 C 10,6 C 51 % 1030,1 hPa 0,0 l/m 0 min 0 min 21 W/m 0,0 km/h (0 Bft) 97,87 %
26.02.2019 17:36 17,0 C 14,4 C 10,6 C 52 % 1030,1 hPa 0,0 l/m 0 min 0 min 20 W/m 0,0 km/h (0 Bft) 97,87 %
26.02.2019 17:38 16,9 C 14,4 C 10,0 C 52 % 1030,1 hPa 0,0 l/m 0 min 0 min 19 W/m 0,0 km/h (0 Bft) 97,87 %
26.02.2019 17:40 16,8 C 13,9 C 10,0 C 53 % 1030,1 hPa 0,0 l/m 0 min 0 min 19 W/m 0,0 km/h (0 Bft) 95,74 %
26.02.2019 17:42 16,7 C 13,9 C 10,0 C 54 % 1030,1 hPa 0,0 l/m 0 min 0 min 18 W/m 0,0 km/h (0 Bft) 93,62 %
26.02.2019 17:44 16,5 C 13,9 C 10,0 C 54 % 1030,0 hPa 0,0 l/m 0 min 0 min 17 W/m 0,0 km/h (0 Bft) 95,74 %
26.02.2019 17:46 16,4 C 13,9 C 9,4 C 54 % 1029,9 hPa 0,0 l/m 0 min 0 min 16 W/m 0,0 km/h (0 Bft) 97,83 %
26.02.2019 17:48 16,3 C 13,3 C 9,4 C 55 % 1030,0 hPa 0,0 l/m 0 min 0 min 15 W/m 0,0 km/h (0 Bft) 97,87 %
26.02.2019 17:50 16,2 C 13,3 C 9,4 C 55 % 1030,0 hPa 0,0 l/m 0 min 0 min 14 W/m 0,0 km/h (0 Bft) 97,87 %
26.02.2019 17:52 16,1 C 13,3 C 9,4 C 56 % 1030,0 hPa 0,0 l/m 0 min 0 min 13 W/m 0,0 km/h (0 Bft) 97,87 %
26.02.2019 17:54 15,9 C 12,8 C 9,4 C 57 % 1030,0 hPa 0,0 l/m 0 min 0 min 12 W/m 0,0 km/h (0 Bft) 97,87 %
26.02.2019 17:56 15,8 C 12,8 C 9,4 C 57 % 1030,0 hPa 0,0 l/m 0 min 0 min 11 W/m 0,0 km/h (0 Bft) 97,83 %
26.02.2019 17:58 15,6 C 12,2 C 9,4 C 58 % 1030,1 hPa 0,0 l/m 0 min 0 min 11 W/m 0,0 km/h (0 Bft) 97,22 %
26.02.2019 18:00 15,5 C 12,2 C 8,9 C 59 % 1030,0 hPa 0,0 l/m 0 min 0 min 9 W/m 0,0 km/h (0 Bft) 95,65 %
26.02.2019 18:02 15,4 C 12,2 C 8,9 C 59 % 1030,0 hPa 0,0 l/m 0 min 0 min 9 W/m 0,0 km/h (0 Bft) 98,31 %
26.02.2019 18:04 15,2 C 12,2 C 8,9 C 59 % 1030,0 hPa 0,0 l/m 0 min 0 min 7 W/m 0,0 km/h (0 Bft) 97,87 %
26.02.2019 18:08 14,9 C 11,7 C 8,9 C 60 % 1030,0 hPa 0,0 l/m 0 min 0 min 6 W/m 0,0 km/h (0 Bft) 98,78 %
26.02.2019 18:10 14,8 C 11,7 C 8,9 C 61 % 1030,0 hPa 0,0 l/m 0 min 0 min 5 W/m 0,0 km/h (0 Bft) 100,00 %
26.02.2019 18:12 14,7 C 11,7 C 8,3 C 61 % 1029,9 hPa 0,0 l/m 0 min 0 min 4 W/m 0,0 km/h (0 Bft) 97,83 %
26.02.2019 18:14 14,6 C 11,1 C 8,3 C 61 % 1029,9 hPa 0,0 l/m 0 min 0 min 0 W/m 0,0 km/h (0 Bft) 100,00 %
26.02.2019 18:16 14,4 C 11,1 C 8,3 C 62 % 1029,9 hPa 0,0 l/m 0 min 0 min 0 W/m 0,0 km/h (0 Bft) 100,00 %
26.02.2019 18:18 14,2 C 11,1 C 8,3 C 62 % 1030,0 hPa 0,0 l/m 0 min 0 min 0 W/m 0,0 km/h (0 Bft) 97,87 %
26.02.2019 18:20 14,2 C 10,6 C 8,3 C 62 % 1030,1 hPa 0,0 l/m 0 min 0 min 0 W/m 0,0 km/h (0 Bft) 95,74 %
26.02.2019 18:22 14,1 C 10,6 C 8,3 C 63 % 1030,0 hPa 0,0 l/m 0 min 0 min 0 W/m 0,0 km/h (0 Bft) 97,87 %
26.02.2019 18:24 13,9 C 10,6 C 7,8 C 63 % 1030,1 hPa 0,0 l/m 0 min 0 min 0 W/m 0,0 km/h (0 Bft) 100,00 %
26.02.2019 18:26 13,8 C 10,6 C 7,8 C 64 % 1030,1 hPa 0,0 l/m 0 min 0 min 0 W/m 0,0 km/h (0 Bft) 97,87 %
26.02.2019 18:28 13,7 C 10,6 C 7,8 C 64 % 1030,0 hPa 0,0 l/m 0 min 0 min 0 W/m 0,0 km/h (0 Bft) 97,87 %
26.02.2019 18:30 13,6 C 10,6 C 7,8 C 64 % 1029,9 hPa 0,0 l/m 0 min 0 min 0 W/m 0,0 km/h (0 Bft) 95,74 %
26.02.2019 18:32 13,4 C 10,0 C 7,8 C 64 % 1030,0 hPa 0,0 l/m 0 min 0 min 0 W/m 0,0 km/h (0 Bft) 95,74 %
26.02.2019 18:34 13,3 C 10,0 C 7,8 C 65 % 1030,0 hPa 0,0 l/m 0 min 0 min 0 W/m 0,0 km/h (0 Bft) 95,74 %
26.02.2019 18:36 13,2 C 10,0 C 7,8 C 65 % 1030,0 hPa 0,0 l/m 0 min 0 min 0 W/m 0,0 km/h (0 Bft) 98,28 %
26.02.2019 18:38 13,1 C 10,0 C 7,8 C 65 % 1030,1 hPa 0,0 l/m 0 min 0 min 0 W/m 0,0 km/h (0 Bft) 97,14 %
26.02.2019 18:40 12,9 C 10,0 C 7,2 C 66 % 1030,0 hPa 0,0 l/m 0 min 0 min 0 W/m 0,0 km/h (0 Bft) 97,87 %
26.02.2019 18:42 12,9 C 10,0 C 7,2 C 66 % 1030,0 hPa 0,0 l/m 0 min 0 min 0 W/m 0,0 km/h (0 Bft) 97,87 %
26.02.2019 18:44 12,8 C 9,4 C 7,2 C 66 % 1029,9 hPa 0,0 l/m 0 min 0 min 0 W/m 0,0 km/h (0 Bft) 97,87 %
26.02.2019 18:46 12,7 C 9,4 C 7,2 C 66 % 1030,0 hPa 0,0 l/m 0 min 0 min 0 W/m 0,0 km/h (0 Bft) 97,87 %
26.02.2019 18:48 12,6 C 9,4 C 7,2 C 66 % 1030,0 hPa 0,0 l/m 0 min 0 min 0 W/m 0,0 km/h (0 Bft) 100,00 %
26.02.2019 18:50 12,4 C 9,4 C 7,2 C 66 % 1030,0 hPa 0,0 l/m 0 min 0 min 0 W/m 0,0 km/h (0 Bft) 97,87 %
26.02.2019 18:52 12,3 C 9,4 C 7,2 C 66 % 1030,0 hPa 0,0 l/m 0 min 0 min 0 W/m 0,0 km/h (0 Bft) 97,87 %
26.02.2019 18:54 12,3 C 9,4 C 7,2 C 66 % 1030,1 hPa 0,0 l/m 0 min 0 min 0 W/m 0,0 km/h (0 Bft) 97,87 %
26.02.2019 18:56 12,2 C 9,4 C 7,2 C 67 % 1030,1 hPa 0,0 l/m 0 min 0 min 0 W/m 0,0 km/h (0 Bft) 100,00 %
26.02.2019 18:58 12,1 C 9,4 C 6,7 C 67 % 1030,1 hPa 0,0 l/m 0 min 0 min 0 W/m 0,0 km/h (0 Bft) 100,00 %
26.02.2019 19:00 12,0 C 9,4 C 6,7 C 67 % 1030,1 hPa 0,0 l/m 0 min 0 min 0 W/m 0,0 km/h (0 Bft) 93,62 %
26.02.2019 19:02 11,9 C 9,4 C 6,7 C 68 % 1030,1 hPa 0,0 l/m 0 min 0 min 0 W/m 0,0 km/h (0 Bft) 97,87 %
26.02.2019 19:04 11,8 C 9,4 C 6,7 C 67 % 1030,1 hPa 0,0 l/m 0 min 0 min 0 W/m 0,0 km/h (0 Bft) 100,00 %
26.02.2019 19:06 11,8 C 8,9 C 6,7 C 68 % 1030,1 hPa 0,0 l/m 0 min 0 min 0 W/m 0,0 km/h (0 Bft) 100,00 %
26.02.2019 19:08 11,7 C 8,9 C 6,7 C 68 % 1030,1 hPa 0,0 l/m 0 min 0 min 0 W/m 0,0 km/h (0 Bft) 100,00 %
26.02.2019 19:10 11,6 C 8,9 C 6,7 C 68 % 1030,1 hPa 0,0 l/m 0 min 0 min 0 W/m 0,0 km/h (0 Bft) 100,00 %
26.02.2019 19:12 11,5 C 8,9 C 6,7 C 68 % 1030,1 hPa 0,0 l/m 0 min 0 min 0 W/m 0,0 km/h (0 Bft) 100,00 %
26.02.2019 19:14 11,4 C 9,4 C 6,7 C 68 % 1030,1 hPa 0,0 l/m 0 min 0 min 0 W/m 0,0 km/h (0 Bft) 100,00 %
26.02.2019 19:16 11,4 C 9,4 C 6,7 C 68 % 1030,0 hPa 0,0 l/m 0 min 0 min 0 W/m 0,0 km/h (0 Bft) 100,00 %
26.02.2019 19:18 11,3 C 9,4 C 6,7 C 68 % 1030,0 hPa 0,0 l/m 0 min 0 min 0 W/m 0,0 km/h (0 Bft) 97,87 %
26.02.2019 19:20 11,3 C 9,4 C 6,7 C 68 % 1030,0 hPa 0,0 l/m 0 min 0 min 0 W/m 0,0 km/h (0 Bft) 97,87 %
26.02.2019 19:22 11,2 C 9,4 C 6,1 C 68 % 1030,0 hPa 0,0 l/m 0 min 0 min 0 W/m 0,0 km/h (0 Bft) 95,65 %
26.02.2019 19:24 11,2 C 8,9 C 6,1 C 68 % 1030,0 hPa 0,0 l/m 0 min 0 min 0 W/m 0,0 km/h (0 Bft) 93,62 %
26.02.2019 19:26 11,1 C 8,9 C 6,1 C 68 % 1030,0 hPa 0,0 l/m 0 min 0 min 0 W/m 0,0 km/h (0 Bft) 95,74 %
26.02.2019 19:28 11,0 C 8,9 C 6,1 C 68 % 1030,0 hPa 0,0 l/m 0 min 0 min 0 W/m 0,0 km/h (0 Bft) 97,87 %
26.02.2019 19:30 10,9 C 8,9 C 6,1 C 68 % 1030,0 hPa 0,0 l/m 0 min 0 min 0 W/m 0,0 km/h (0 Bft) 91,49 %
26.02.2019 19:32 10,9 C 8,3 C 6,1 C 68 % 1030,0 hPa 0,0 l/m 0 min 0 min 0 W/m 0,0 km/h (0 Bft) 97,87 %
26.02.2019 19:34 10,8 C 8,3 C 6,1 C 68 % 1030,0 hPa 0,0 l/m 0 min 0 min 0 W/m 0,0 km/h (0 Bft) 97,83 %
26.02.2019 19:36 10,7 C 8,3 C 6,1 C 68 % 1029,9 hPa 0,0 l/m 0 min 0 min 0 W/m 0,0 km/h (0 Bft) 98,31 %
26.02.2019 19:38 10,7 C 8,3 C 6,1 C 69 % 1029,9 hPa 0,0 l/m 0 min 0 min 0 W/m 0,0 km/h (0 Bft) 97,14 %
26.02.2019 19:40 10,6 C 8,3 C 6,1 C 69 % 1030,0 hPa 0,0 l/m 0 min 0 min 0 W/m 0,0 km/h (0 Bft) 97,87 %
26.02.2019 19:42 10,6 C 8,3 C 6,1 C 69 % 1030,0 hPa 0,0 l/m 0 min 0 min 0 W/m 0,0 km/h (0 Bft) 97,87 %
26.02.2019 19:44 10,5 C 8,3 C 6,1 C 69 % 1030,0 hPa 0,0 l/m 0 min 0 min 0 W/m 0,0 km/h (0 Bft) 97,87 %
26.02.2019 19:46 10,4 C 8,3 C 5,6 C 69 % 1030,0 hPa 0,0 l/m 0 min 0 min 0 W/m 0,0 km/h (0 Bft) 97,83 %
26.02.2019 19:48 10,3 C 8,3 C 5,6 C 69 % 1030,0 hPa 0,0 l/m 0 min 0 min 0 W/m 0,0 km/h (0 Bft) 93,88 %
26.02.2019 19:50 10,3 C 8,3 C 5,6 C 69 % 1030,0 hPa 0,0 l/m 0 min 0 min 0 W/m 0,0 km/h (0 Bft) 91,49 %
26.02.2019 19:52 10,2 C 8,3 C 5,6 C 69 % 1029,9 hPa 0,0 l/m 0 min 0 min 0 W/m 0,0 km/h (0 Bft) 97,87 %
26.02.2019 19:54 10,2 C 8,3 C 5,6 C 69 % 1029,9 hPa 0,0 l/m 0 min 0 min 0 W/m 0,0 km/h (0 Bft) 97,87 %
26.02.2019 19:56 10,1 C 8,3 C 5,6 C 69 % 1029,9 hPa 0,0 l/m 0 min 0 min 0 W/m 0,0 km/h (0 Bft) 97,83 %
26.02.2019 19:58 10,1 C 8,3 C 5,6 C 69 % 1029,9 hPa 0,0 l/m 0 min 0 min 0 W/m 0,0 km/h (0 Bft) 95,74 %
26.02.2019 20:00 10,0 C 8,3 C 5,6 C 69 % 1029,9 hPa 0,0 l/m 0 min 0 min 0 W/m 0,0 km/h (0 Bft) 95,74 %
26.02.2019 20:02 9,9 C 8,3 C 5,6 C 70 % 1029,9 hPa 0,0 l/m 0 min 0 min 0 W/m 0,0 km/h (0 Bft) 93,62 %
26.02.2019 20:04 9,9 C 8,3 C 5,6 C 70 % 1029,9 hPa 0,0 l/m 0 min 0 min 0 W/m 0,0 km/h (0 Bft) 91,49 %
26.02.2019 20:06 9,9 C 8,3 C 5,6 C 70 % 1029,9 hPa 0,0 l/m 0 min 0 min 0 W/m 0,0 km/h (0 Bft) 95,74 %
26.02.2019 20:08 9,8 C 7,8 C 5,6 C 70 % 1029,9 hPa 0,0 l/m 0 min 0 min 0 W/m 0,0 km/h (0 Bft) 95,65 %
26.02.2019 20:10 9,8 C 8,3 C 5,6 C 70 % 1029,9 hPa 0,0 l/m 0 min 0 min 0 W/m 3,2 km/h (1 Bft) 95,74 %
26.02.2019 20:12 9,7 C 8,9 C 5,6 C 71 % 1029,9 hPa 0,0 l/m 0 min 0 min 0 W/m 3,2 km/h (1 Bft) 93,62 %
26.02.2019 20:14 9,7 C 8,3 C 5,6 C 71 % 1029,9 hPa 0,0 l/m 0 min 0 min 0 W/m 0,0 km/h (0 Bft) 95,74 %
26.02.2019 20:16 9,7 C 8,3 C 5,6 C 71 % 1029,9 hPa 0,0 l/m 0 min 0 min 0 W/m 0,0 km/h (0 Bft) 95,74 %
26.02.2019 20:18 9,6 C 8,3 C 5,6 C 71 % 1029,9 hPa 0,0 l/m 0 min 0 min 0 W/m 0,0 km/h (0 Bft) 95,74 %
26.02.2019 20:20 9,6 C 8,3 C 5,6 C 71 % 1029,9 hPa 0,0 l/m 0 min 0 min 0 W/m 3,2 km/h (1 Bft) 95,65 %
26.02.2019 20:22 9,6 C 8,3 C 5,6 C 71 % 1029,9 hPa 0,0 l/m 0 min 0 min 0 W/m 3,2 km/h (1 Bft) 95,74 %
26.02.2019 20:24 9,5 C 8,3 C 5,6 C 72 % 1029,9 hPa 0,0 l/m 0 min 0 min 0 W/m 3,2 km/h (1 Bft) 97,87 %
26.02.2019 20:26 9,5 C 8,3 C 5,6 C 72 % 1029,9 hPa 0,0 l/m 0 min 0 min 0 W/m 0,0 km/h (0 Bft) 97,87 %
26.02.2019 20:28 9,4 C 8,3 C 5,6 C 72 % 1029,8 hPa 0,0 l/m 0 min 0 min 0 W/m 0,0 km/h (0 Bft) 100,00 %
26.02.2019 20:30 9,4 C 8,3 C 5,6 C 72 % 1029,9 hPa 0,0 l/m 0 min 0 min 0 W/m 0,0 km/h (0 Bft) 100,00 %
26.02.2019 20:32 9,4 C 8,3 C 5,6 C 72 % 1029,8 hPa 0,0 l/m 0 min 0 min 0 W/m 0,0 km/h (0 Bft) 97,83 %
26.02.2019 20:34 9,4 C 8,3 C 5,6 C 72 % 1029,8 hPa 0,0 l/m 0 min 0 min 0 W/m 0,0 km/h (0 Bft) 100,00 %
26.02.2019 20:36 9,3 C 8,3 C 5,6 C 72 % 1029,9 hPa 0,0 l/m 0 min 0 min 0 W/m 0,0 km/h (0 Bft) 100,00 %
26.02.2019 20:38 9,3 C 8,3 C 5,6 C 73 % 1029,9 hPa 0,0 l/m 0 min 0 min 0 W/m 0,0 km/h (0 Bft) 100,00 %
26.02.2019 20:40 9,3 C 7,8 C 5,0 C 72 % 1029,9 hPa 0,0 l/m 0 min 0 min 0 W/m 0,0 km/h (0 Bft) 97,87 %
26.02.2019 20:42 9,3 C 7,8 C 5,0 C 72 % 1029,9 hPa 0,0 l/m 0 min 0 min 0 W/m 0,0 km/h (0 Bft) 100,00 %
26.02.2019 20:44 9,2 C 7,8 C 5,0 C 72 % 1029,9 hPa 0,0 l/m 0 min 0 min 0 W/m 0,0 km/h (0 Bft) 100,00 %
26.02.2019 20:46 9,2 C 7,8 C 5,0 C 72 % 1029,9 hPa 0,0 l/m 0 min 0 min 0 W/m 0,0 km/h (0 Bft) 100,00 %
26.02.2019 20:48 9,2 C 7,8 C 5,0 C 72 % 1029,9 hPa 0,0 l/m 0 min 0 min 0 W/m 0,0 km/h (0 Bft) 100,00 %
26.02.2019 20:50 9,2 C 7,8 C 5,0 C 72 % 1029,9 hPa 0,0 l/m 0 min 0 min 0 W/m 0,0 km/h (0 Bft) 95,74 %
26.02.2019 20:52 9,2 C 7,8 C 5,0 C 73 % 1029,8 hPa 0,0 l/m 0 min 0 min 0 W/m 0,0 km/h (0 Bft) 95,74 %
26.02.2019 20:54 9,2 C 7,8 C 5,0 C 73 % 1029,8 hPa 0,0 l/m 0 min 0 min 0 W/m 0,0 km/h (0 Bft) 100,00 %
26.02.2019 20:56 9,1 C 7,8 C 5,0 C 73 % 1029,7 hPa 0,0 l/m 0 min 0 min 0 W/m 0,0 km/h (0 Bft) 100,00 %
26.02.2019 20:58 9,1 C 7,8 C 5,0 C 73 % 1029,8 hPa 0,0 l/m 0 min 0 min 0 W/m 0,0 km/h (0 Bft) 100,00 %
26.02.2019 21:00 9,1 C 7,2 C 5,0 C 73 % 1029,7 hPa 0,0 l/m 0 min 0 min 0 W/m 0,0 km/h (0 Bft) 100,00 %
26.02.2019 21:02 9,0 C 7,2 C 5,0 C 73 % 1029,7 hPa 0,0 l/m 0 min 0 min 0 W/m 0,0 km/h (0 Bft) 100,00 %
26.02.2019 21:04 9,0 C 7,2 C 4,4 C 73 % 1029,7 hPa 0,0 l/m 0 min 0 min 0 W/m 0,0 km/h (0 Bft) 100,00 %
26.02.2019 21:06 9,0 C 7,2 C 4,4 C 73 % 1029,6 hPa 0,0 l/m 0 min 0 min 0 W/m 0,0 km/h (0 Bft) 100,00 %
26.02.2019 21:08 8,9 C 7,2 C 4,4 C 73 % 1029,7 hPa 0,0 l/m 0 min 0 min 0 W/m 0,0 km/h (0 Bft) 97,14 %
26.02.2019 21:10 8,9 C 7,2 C 4,4 C 73 % 1029,6 hPa 0,0 l/m 0 min 0 min 0 W/m 0,0 km/h (0 Bft) 100,00 %
26.02.2019 21:12 8,9 C 7,2 C 4,4 C 73 % 1029,6 hPa 0,0 l/m 0 min 0 min 0 W/m 0,0 km/h (0 Bft) 100,00 %
26.02.2019 21:14 8,8 C 6,7 C 4,4 C 73 % 1029,6 hPa 0,0 l/m 0 min 0 min 0 W/m 0,0 km/h (0 Bft) 100,00 %
26.02.2019 21:16 8,8 C 6,7 C 4,4 C 73 % 1029,6 hPa 0,0 l/m 0 min 0 min 0 W/m 0,0 km/h (0 Bft) 100,00 %
26.02.2019 21:18 8,8 C 6,7 C 4,4 C 73 % 1029,5 hPa 0,0 l/m 0 min 0 min 0 W/m 0,0 km/h (0 Bft) 97,83 %
26.02.2019 21:20 8,7 C 6,7 C 4,4 C 73 % 1029,5 hPa 0,0 l/m 0 min 0 min 0 W/m 0,0 km/h (0 Bft) 97,87 %
26.02.2019 21:22 8,7 C 6,7 C 4,4 C 73 % 1029,5 hPa 0,0 l/m 0 min 0 min 0 W/m 0,0 km/h (0 Bft) 97,87 %
26.02.2019 21:24 8,7 C 6,7 C 4,4 C 73 % 1029,5 hPa 0,0 l/m 0 min 0 min 0 W/m 0,0 km/h (0 Bft) 100,00 %
26.02.2019 21:26 8,6 C 6,7 C 4,4 C 73 % 1029,5 hPa 0,0 l/m 0 min 0 min 0 W/m 0,0 km/h (0 Bft) 100,00 %
26.02.2019 21:28 8,6 C 6,1 C 4,4 C 73 % 1029,5 hPa 0,0 l/m 0 min 0 min 0 W/m 0,0 km/h (0 Bft) 97,87 %
26.02.2019 21:30 8,5 C 6,1 C 4,4 C 73 % 1029,4 hPa 0,0 l/m 0 min 0 min 0 W/m 0,0 km/h (0 Bft) 97,83 %
26.02.2019 21:32 8,4 C 6,1 C 3,9 C 73 % 1029,5 hPa 0,0 l/m 0 min 0 min 0 W/m 0,0 km/h (0 Bft) 95,74 %
26.02.2019 21:34 8,4 C 6,1 C 3,9 C 73 % 1029,5 hPa 0,0 l/m 0 min 0 min 0 W/m 0,0 km/h (0 Bft) 97,87 %
26.02.2019 21:36 8,4 C 6,1 C 3,9 C 73 % 1029,4 hPa 0,0 l/m 0 min 0 min 0 W/m 0,0 km/h (0 Bft) 98,31 %
26.02.2019 21:38 8,3 C 6,7 C 3,9 C 73 % 1029,5 hPa 0,0 l/m 0 min 0 min 0 W/m 0,0 km/h (0 Bft) 94,29 %
26.02.2019 21:40 8,3 C 6,7 C 3,9 C 74 % 1029,5 hPa 0,0 l/m 0 min 0 min 0 W/m 0,0 km/h (0 Bft) 93,62 %
26.02.2019 21:42 8,2 C 6,1 C 3,9 C 74 % 1029,5 hPa 0,0 l/m 0 min 0 min 0 W/m 0,0 km/h (0 Bft) 97,83 %
26.02.2019 21:44 8,2 C 6,1 C 3,9 C 74 % 1029,5 hPa 0,0 l/m 0 min 0 min 0 W/m 0,0 km/h (0 Bft) 91,49 %
26.02.2019 21:46 8,1 C 6,1 C 3,9 C 74 % 1029,5 hPa 0,0 l/m 0 min 0 min 0 W/m 0,0 km/h (0 Bft) 95,74 %
26.02.2019 21:48 8,1 C 6,1 C 3,9 C 74 % 1029,5 hPa 0,0 l/m 0 min 0 min 0 W/m 0,0 km/h (0 Bft) 95,74 %
26.02.2019 21:50 8,0 C 6,1 C 3,9 C 74 % 1029,5 hPa 0,0 l/m 0 min 0 min 0 W/m 0,0 km/h (0 Bft) 95,74 %
26.02.2019 21:52 7,9 C 6,1 C 3,9 C 74 % 1029,5 hPa 0,0 l/m 0 min 0 min 0 W/m 0,0 km/h (0 Bft) 93,48 %
26.02.2019 21:54 7,9 C 5,6 C 3,9 C 74 % 1029,5 hPa 0,0 l/m 0 min 0 min 0 W/m 0,0 km/h (0 Bft) 97,87 %
26.02.2019 21:56 7,9 C 5,6 C 3,9 C 74 % 1029,5 hPa 0,0 l/m 0 min 0 min 0 W/m 0,0 km/h (0 Bft) 97,87 %
26.02.2019 21:58 7,8 C 5,6 C 3,9 C 75 % 1029,4 hPa 0,0 l/m 0 min 0 min 0 W/m 0,0 km/h (0 Bft) 95,74 %
26.02.2019 22:00 7,8 C 5,6 C 3,9 C 75 % 1029,4 hPa 0,0 l/m 0 min 0 min 0 W/m 0,0 km/h (0 Bft) 97,87 %
26.02.2019 22:02 7,7 C 5,6 C 3,9 C 75 % 1029,4 hPa 0,0 l/m 0 min 0 min 0 W/m 0,0 km/h (0 Bft) 97,87 %
26.02.2019 22:04 7,7 C 5,6 C 3,9 C 75 % 1029,4 hPa 0,0 l/m 0 min 0 min 0 W/m 0,0 km/h (0 Bft) 97,83 %
26.02.2019 22:06 7,6 C 5,6 C 3,9 C 75 % 1029,4 hPa 0,0 l/m 0 min 0 min 0 W/m 0,0 km/h (0 Bft) 97,87 %
26.02.2019 22:08 7,6 C 5,6 C 3,3 C 75 % 1029,4 hPa 0,0 l/m 0 min 0 min 0 W/m 0,0 km/h (0 Bft) 95,74 %
26.02.2019 22:10 7,5 C 5,6 C 3,3 C 75 % 1029,5 hPa 0,0 l/m 0 min 0 min 0 W/m 0,0 km/h (0 Bft) 97,87 %
26.02.2019 22:12 7,4 C 5,6 C 3,3 C 75 % 1029,4 hPa 0,0 l/m 0 min 0 min 0 W/m 0,0 km/h (0 Bft) 97,87 %
26.02.2019 22:14 7,4 C 5,6 C 3,3 C 75 % 1029,4 hPa 0,0 l/m 0 min 0 min 0 W/m 0,0 km/h (0 Bft) 97,87 %
26.02.2019 22:16 7,4 C 5,6 C 3,3 C 75 % 1029,4 hPa 0,0 l/m 0 min 0 min 0 W/m 0,0 km/h (0 Bft) 97,83 %
26.02.2019 22:18 7,3 C 5,6 C 3,3 C 75 % 1029,3 hPa 0,0 l/m 0 min 0 min 0 W/m 0,0 km/h (0 Bft) 97,87 %
26.02.2019 22:20 7,3 C 5,6 C 3,3 C 76 % 1029,3 hPa 0,0 l/m 0 min 0 min 0 W/m 0,0 km/h (0 Bft) 97,87 %
26.02.2019 22:22 7,2 C 5,0 C 3,3 C 76 % 1029,3 hPa 0,0 l/m 0 min 0 min 0 W/m 0,0 km/h (0 Bft) 97,87 %
26.02.2019 22:24 7,2 C 5,0 C 3,3 C 76 % 1029,3 hPa 0,0 l/m 0 min 0 min 0 W/m 0,0 km/h (0 Bft) 95,74 %
26.02.2019 22:26 7,1 C 5,0 C 3,3 C 76 % 1029,3 hPa 0,0 l/m 0 min 0 min 0 W/m 0,0 km/h (0 Bft) 97,87 %
26.02.2019 22:28 7,1 C 5,0 C 3,3 C 76 % 1029,2 hPa 0,0 l/m 0 min 0 min 0 W/m 0,0 km/h (0 Bft) 93,48 %
26.02.2019 22:30 7,1 C 5,0 C 3,3 C 76 % 1029,2 hPa 0,0 l/m 0 min 0 min 0 W/m 0,0 km/h (0 Bft) 95,74 %
26.02.2019 22:32 7,0 C 5,0 C 3,3 C 76 % 1029,2 hPa 0,0 l/m 0 min 0 min 0 W/m 0,0 km/h (0 Bft) 97,87 %
26.02.2019 22:34 6,9 C 5,0 C 3,3 C 76 % 1029,3 hPa 0,0 l/m 0 min 0 min 0 W/m 0,0 km/h (0 Bft) 97,87 %
26.02.2019 22:36 6,9 C 5,0 C 3,3 C 76 % 1029,2 hPa 0,0 l/m 0 min 0 min 0 W/m 0,0 km/h (0 Bft) 97,87 %
26.02.2019 22:38 6,9 C 5,0 C 3,3 C 76 % 1029,3 hPa 0,0 l/m 0 min 0 min 0 W/m 0,0 km/h (0 Bft) 97,87 %
26.02.2019 22:40 6,8 C 5,0 C 3,3 C 77 % 1029,3 hPa 0,0 l/m 0 min 0 min 0 W/m 0,0 km/h (0 Bft) 97,83 %
26.02.2019 22:42 6,8 C 5,0 C 3,3 C 77 % 1029,2 hPa 0,0 l/m 0 min 0 min 0 W/m 0,0 km/h (0 Bft) 95,74 %
26.02.2019 22:44 6,7 C 5,0 C 3,3 C 77 % 1029,2 hPa 0,0 l/m 0 min 0 min 0 W/m 0,0 km/h (0 Bft) 93,62 %
26.02.2019 22:46 6,7 C 5,0 C 2,8 C 77 % 1029,2 hPa 0,0 l/m 0 min 0 min 0 W/m 0,0 km/h (0 Bft) 97,87 %
26.02.2019 22:48 6,6 C 5,0 C 2,8 C 77 % 1029,2 hPa 0,0 l/m 0 min 0 min 0 W/m 0,0 km/h (0 Bft) 95,74 %
26.02.2019 22:50 6,6 C 5,0 C 2,8 C 77 % 1029,3 hPa 0,0 l/m 0 min 0 min 0 W/m 0,0 km/h (0 Bft) 93,62 %
26.02.2019 22:52 6,5 C 5,0 C 2,8 C 77 % 1029,3 hPa 0,0 l/m 0 min 0 min 0 W/m 0,0 km/h (0 Bft) 91,30 %
26.02.2019 22:54 6,4 C 4,4 C 2,8 C 77 % 1029,3 hPa 0,0 l/m 0 min 0 min 0 W/m 0,0 km/h (0 Bft) 95,74 %
26.02.2019 22:56 6,4 C 4,4 C 2,8 C 77 % 1029,3 hPa 0,0 l/m 0 min 0 min 0 W/m 0,0 km/h (0 Bft) 93,62 %
26.02.2019 22:58 6,4 C 4,4 C 2,8 C 77 % 1029,2 hPa 0,0 l/m 0 min 0 min 0 W/m 0,0 km/h (0 Bft) 89,36 %
26.02.2019 23:00 6,4 C 4,4 C 2,8 C 77 % 1029,2 hPa 0,0 l/m 0 min 0 min 0 W/m 0,0 km/h (0 Bft) 93,62 %
26.02.2019 23:02 6,3 C 4,4 C 2,8 C 78 % 1029,2 hPa 0,0 l/m 0 min 0 min 0 W/m 0,0 km/h (0 Bft) 93,88 %
26.02.2019 23:04 6,3 C 4,4 C 2,8 C 78 % 1029,2 hPa 0,0 l/m 0 min 0 min 0 W/m 0,0 km/h (0 Bft) 95,74 %
26.02.2019 23:06 6,2 C 4,4 C 2,8 C 78 % 1029,2 hPa 0,0 l/m 0 min 0 min 0 W/m 0,0 km/h (0 Bft) 95,74 %
26.02.2019 23:08 6,2 C 4,4 C 2,8 C 78 % 1029,2 hPa 0,0 l/m 0 min 0 min 0 W/m 0,0 km/h (0 Bft) 93,62 %
26.02.2019 23:10 6,1 C 4,4 C 2,8 C 78 % 1029,2 hPa 0,0 l/m 0 min 0 min 0 W/m 0,0 km/h (0 Bft) 95,92 %
26.02.2019 23:12 6,1 C 3,9 C 2,8 C 78 % 1029,2 hPa 0,0 l/m 0 min 0 min 0 W/m 0,0 km/h (0 Bft) 91,67 %
26.02.2019 23:14 6,0 C 3,9 C 2,8 C 78 % 1029,2 hPa 0,0 l/m 0 min 0 min 0 W/m 0,0 km/h (0 Bft) 95,74 %
26.02.2019 23:16 6,0 C 3,9 C 2,8 C 78 % 1029,2 hPa 0,0 l/m 0 min 0 min 0 W/m 0,0 km/h (0 Bft) 95,74 %
26.02.2019 23:18 5,9 C 3,9 C 2,8 C 78 % 1029,1 hPa 0,0 l/m 0 min 0 min 0 W/m 0,0 km/h (0 Bft) 97,87 %
26.02.2019 23:20 5,9 C 3,9 C 2,8 C 78 % 1029,1 hPa 0,0 l/m 0 min 0 min 0 W/m 0,0 km/h (0 Bft) 97,87 %
26.02.2019 23:22 5,8 C 3,9 C 2,2 C 78 % 1029,1 hPa 0,0 l/m 0 min 0 min 0 W/m 0,0 km/h (0 Bft) 97,83 %
26.02.2019 23:24 5,8 C 3,9 C 2,2 C 78 % 1029,1 hPa 0,0 l/m 0 min 0 min 0 W/m 0,0 km/h (0 Bft) 95,24 %
26.02.2019 23:26 5,8 C 3,9 C 2,2 C 78 % 1029,2 hPa 0,0 l/m 0 min 0 min 0 W/m 0,0 km/h (0 Bft) 95,65 %
26.02.2019 23:28 5,7 C 3,9 C 2,2 C 78 % 1029,2 hPa 0,0 l/m 0 min 0 min 0 W/m 0,0 km/h (0 Bft) 97,87 %
26.02.2019 23:30 5,7 C 3,9 C 2,2 C 79 % 1029,1 hPa 0,0 l/m 0 min 0 min 0 W/m 0,0 km/h (0 Bft) 97,87 %
26.02.2019 23:32 5,6 C 3,9 C 2,2 C 79 % 1029,2 hPa 0,0 l/m 0 min 0 min 0 W/m 0,0 km/h (0 Bft) 94,00 %
26.02.2019 23:34 5,6 C 3,9 C 2,2 C 79 % 1029,2 hPa 0,0 l/m 0 min 0 min 0 W/m 0,0 km/h (0 Bft) 97,87 %
26.02.2019 23:36 5,6 C 4,4 C 2,2 C 79 % 1029,2 hPa 0,0 l/m 0 min 0 min 0 W/m 0,0 km/h (0 Bft) 97,83 %
26.02.2019 23:38 5,5 C 3,9 C 2,2 C 79 % 1029,2 hPa 0,0 l/m 0 min 0 min 0 W/m 0,0 km/h (0 Bft) 95,74 %
26.02.2019 23:40 5,4 C 3,9 C 2,2 C 79 % 1029,1 hPa 0,0 l/m 0 min 0 min 0 W/m 0,0 km/h (0 Bft) 97,87 %
26.02.2019 23:42 5,4 C 3,9 C 2,2 C 79 % 1029,1 hPa 0,0 l/m 0 min 0 min 0 W/m 0,0 km/h (0 Bft) 97,87 %
26.02.2019 23:44 5,4 C 3,9 C 2,2 C 79 % 1029,1 hPa 0,0 l/m 0 min 0 min 0 W/m 0,0 km/h (0 Bft) 97,87 %
26.02.2019 23:46 5,3 C 3,9 C 2,2 C 79 % 1029,2 hPa 0,0 l/m 0 min 0 min 0 W/m 0,0 km/h (0 Bft) 97,87 %
26.02.2019 23:48 5,3 C 3,9 C 2,2 C 79 % 1029,2 hPa 0,0 l/m 0 min 0 min 0 W/m 0,0 km/h (0 Bft) 95,65 %
26.02.2019 23:50 5,3 C 3,9 C 2,2 C 80 % 1029,2 hPa 0,0 l/m 0 min 0 min 0 W/m 0,0 km/h (0 Bft) 95,74 %
26.02.2019 23:52 5,2 C 3,9 C 2,2 C 80 % 1029,2 hPa 0,0 l/m 0 min 0 min 0 W/m 0,0 km/h (0 Bft) 95,74 %
26.02.2019 23:54 5,2 C 3,9 C 2,2 C 80 % 1029,2 hPa 0,0 l/m 0 min 0 min 0 W/m 0,0 km/h (0 Bft) 97,87 %
26.02.2019 23:56 5,2 C 3,3 C 2,2 C 80 % 1029,2 hPa 0,0 l/m 0 min 0 min 0 W/m 0,0 km/h (0 Bft) 97,87 %
26.02.2019 23:58 5,2 C 3,3 C 2,2 C 80 % 1029,2 hPa 0,0 l/m 0 min 0 min 0 W/m 0,0 km/h (0 Bft) 97,87 %
_ Min-Zeit 08:18 06:56 06:52 14:58 23:18 - - - - 00:00 08:54
Minimum _ 2,0 C 0,6 C 0,0 C 44 % 1029,1 hPa - - - - 0,0 km/h (0 Bft) 89,36 %
_ Max-Zeit 15:20 13:46 13:02 09:30 00:12 00:00 12:08 00:00 12:54 03:00 00:02
Maximum _ 20,4 C 28,9 C 26,1 C 93 % 1033,7 hPa 0,0 l/m 4 min 0 min 561 W/m 22,5 km/h
O-SO (4 Bft)
100,00 %
Durchschnitt _ 9,9 C 10,9 C 7,6 C 70 % 1031,7 hPa #0,0 l/m #7:22 h #0 min. 306 W/m 3,7 km/h (1 Bft) 97,14 %
© 2019 W. Hausmann